Wetterdaten: Mittwoch, 15.11.2023
Datum Zeit Temp. Aussen Temp. o. S. Temp +5cm Feuchte Auss Luftdruck Regen Sonnenschein Regendauer Solar Windben Empfang
15.11.2023 00:00 9,7 C 8,9 C 6,1 C 98 % 1007,2 hPa 0,2 l/m 0 min 2 min 0 W/m 12,9 km/h (3 Bft) 93,75 %
15.11.2023 00:02 9,7 C 8,9 C 6,1 C 98 % 1007,3 hPa 0,0 l/m 0 min 2 min 0 W/m 19,3 km/h (3 Bft) 97,56 %
15.11.2023 00:04 9,7 C 8,9 C 6,1 C 98 % 1007,3 hPa 0,4 l/m 0 min 2 min 0 W/m 12,9 km/h (3 Bft) 97,96 %
15.11.2023 00:05 9,7 C 8,9 C 6,1 C 98 % 1007,2 hPa 0,6 l/m 0 min 1 min 0 W/m 19,3 km/h (3 Bft) 100,00 %
15.11.2023 00:10 9,7 C 8,9 C 6,1 C 98 % 1007,5 hPa 0,0 l/m 0 min 5 min 0 W/m 12,9 km/h (3 Bft) 100,00 %
15.11.2023 00:18 9,8 C 8,9 C 6,7 C 98 % 1007,6 hPa 0,0 l/m 0 min 5 min 0 W/m 22,5 km/h (4 Bft) 91,30 %
15.11.2023 00:20 9,8 C 8,9 C 6,7 C 98 % 1007,6 hPa 0,0 l/m 0 min 2 min 0 W/m 19,3 km/h (3 Bft) 100,00 %
15.11.2023 00:22 9,8 C 8,9 C 6,7 C 98 % 1007,6 hPa 0,0 l/m 0 min 2 min 0 W/m 16,1 km/h (3 Bft) 100,00 %
15.11.2023 00:24 9,9 C 8,9 C 6,7 C 98 % 1007,6 hPa 0,0 l/m 0 min 2 min 0 W/m 9,7 km/h (2 Bft) 97,87 %
15.11.2023 00:26 9,9 C 8,9 C 6,7 C 98 % 1007,7 hPa 0,0 l/m 0 min 0 min 0 W/m 16,1 km/h (3 Bft) 100,00 %
15.11.2023 00:28 9,9 C 9,4 C 6,7 C 98 % 1007,7 hPa 0,0 l/m 0 min 0 min 0 W/m 16,1 km/h (3 Bft) 100,00 %
15.11.2023 00:30 9,9 C 9,4 C 6,7 C 98 % 1007,8 hPa 0,0 l/m 0 min 0 min 0 W/m 16,1 km/h (3 Bft) 100,00 %
15.11.2023 00:32 10,0 C 9,4 C 6,7 C 98 % 1007,8 hPa 0,0 l/m 0 min 0 min 0 W/m 12,9 km/h (3 Bft) 100,00 %
15.11.2023 00:34 10,0 C 9,4 C 6,7 C 98 % 1007,8 hPa 0,0 l/m 0 min 0 min 0 W/m 12,9 km/h (3 Bft) 100,00 %
15.11.2023 00:36 10,0 C 9,4 C 6,7 C 98 % 1007,9 hPa 0,0 l/m 0 min 0 min 0 W/m 16,1 km/h (3 Bft) 100,00 %
15.11.2023 00:38 10,0 C 9,4 C 6,7 C 98 % 1007,9 hPa 0,0 l/m 0 min 0 min 0 W/m 16,1 km/h (3 Bft) 100,00 %
15.11.2023 00:40 10,1 C 9,4 C 6,7 C 98 % 1008,0 hPa 0,0 l/m 0 min 0 min 0 W/m 22,5 km/h (4 Bft) 100,00 %
15.11.2023 00:42 10,1 C 9,4 C 6,7 C 98 % 1008,1 hPa 0,0 l/m 0 min 0 min 0 W/m 19,3 km/h (3 Bft) 100,00 %
15.11.2023 00:44 10,1 C 9,4 C 6,7 C 98 % 1008,1 hPa 0,0 l/m 0 min 0 min 0 W/m 16,1 km/h (3 Bft) 100,00 %
15.11.2023 00:46 10,1 C 9,4 C 6,7 C 98 % 1008,2 hPa 0,0 l/m 0 min 0 min 0 W/m 19,3 km/h (3 Bft) 100,00 %
15.11.2023 00:48 10,1 C 9,4 C 6,7 C 98 % 1008,2 hPa 0,0 l/m 0 min 0 min 0 W/m 19,3 km/h (3 Bft) 100,00 %
15.11.2023 00:50 10,1 C 9,4 C 6,7 C 98 % 1008,2 hPa 0,0 l/m 0 min 0 min 0 W/m 22,5 km/h (4 Bft) 97,87 %
15.11.2023 00:52 10,1 C 9,4 C 6,7 C 98 % 1008,3 hPa 0,0 l/m 0 min 0 min 0 W/m 16,1 km/h (3 Bft) 100,00 %
15.11.2023 00:54 10,1 C 9,4 C 6,7 C 98 % 1008,3 hPa 0,0 l/m 0 min 0 min 0 W/m 19,3 km/h (3 Bft) 100,00 %
15.11.2023 00:56 10,1 C 9,4 C 6,7 C 98 % 1008,3 hPa 0,0 l/m 0 min 0 min 0 W/m 12,9 km/h (3 Bft) 100,00 %
15.11.2023 00:58 10,1 C 9,4 C 6,7 C 98 % 1008,3 hPa 0,0 l/m 0 min 0 min 0 W/m 12,9 km/h (3 Bft) 51,22 %
15.11.2023 01:00 10,1 C 9,4 C 6,7 C 98 % 1008,3 hPa 0,0 l/m 0 min 0 min 0 W/m 19,3 km/h (3 Bft) 100,00 %
15.11.2023 01:02 10,1 C 9,4 C 6,7 C 98 % 1008,4 hPa 0,0 l/m 0 min 0 min 0 W/m 6,4 km/h (2 Bft) 100,00 %
15.11.2023 01:04 10,1 C 9,4 C 6,7 C 98 % 1008,4 hPa 0,0 l/m 0 min 0 min 0 W/m 19,3 km/h (3 Bft) 100,00 %
15.11.2023 01:08 10,1 C 9,4 C 6,7 C 98 % 1008,5 hPa 0,0 l/m 0 min 0 min 0 W/m 22,5 km/h (4 Bft) 98,98 %
15.11.2023 01:10 10,1 C 9,4 C 6,7 C 98 % 1008,5 hPa 0,0 l/m 0 min 0 min 0 W/m 22,5 km/h (4 Bft) 100,00 %
15.11.2023 01:12 10,1 C 9,4 C 6,7 C 98 % 1008,5 hPa 0,0 l/m 0 min 0 min 0 W/m 22,5 km/h (4 Bft) 100,00 %
15.11.2023 01:14 10,1 C 9,4 C 6,7 C 98 % 1008,5 hPa 0,0 l/m 0 min 0 min 0 W/m 25,7 km/h (4 Bft) 100,00 %
15.11.2023 01:16 10,1 C 9,4 C 6,7 C 98 % 1008,4 hPa 0,0 l/m 0 min 0 min 0 W/m 12,9 km/h (3 Bft) 100,00 %
15.11.2023 01:18 10,1 C 9,4 C 6,7 C 98 % 1008,5 hPa 0,0 l/m 0 min 0 min 0 W/m 22,5 km/h (4 Bft) 100,00 %
15.11.2023 01:20 10,2 C 9,4 C 6,7 C 98 % 1008,5 hPa 0,0 l/m 0 min 0 min 0 W/m 16,1 km/h (3 Bft) 100,00 %
15.11.2023 01:22 10,2 C 9,4 C 6,7 C 98 % 1008,5 hPa 0,0 l/m 0 min 0 min 0 W/m 22,5 km/h (4 Bft) 100,00 %
15.11.2023 01:24 10,2 C 9,4 C 6,7 C 98 % 1008,5 hPa 0,0 l/m 0 min 0 min 0 W/m 19,3 km/h (3 Bft) 100,00 %
15.11.2023 01:26 10,2 C 9,4 C 6,7 C 98 % 1008,5 hPa 0,0 l/m 0 min 0 min 0 W/m 35,4 km/h (5 Bft) 100,00 %
15.11.2023 01:28 10,2 C 9,4 C 6,7 C 98 % 1008,5 hPa 0,0 l/m 0 min 0 min 0 W/m 19,3 km/h (3 Bft) 97,83 %
15.11.2023 01:30 10,1 C 9,4 C 6,7 C 98 % 1008,5 hPa 0,0 l/m 0 min 0 min 0 W/m 19,3 km/h (3 Bft) 95,74 %
15.11.2023 01:32 10,1 C 9,4 C 6,7 C 98 % 1008,6 hPa 0,0 l/m 0 min 0 min 0 W/m 19,3 km/h (3 Bft) 97,87 %
15.11.2023 01:34 10,1 C 9,4 C 6,7 C 98 % 1008,7 hPa 0,0 l/m 0 min 0 min 0 W/m 16,1 km/h (3 Bft) 95,74 %
15.11.2023 01:36 10,1 C 9,4 C 6,7 C 98 % 1008,6 hPa 0,0 l/m 0 min 0 min 0 W/m 25,7 km/h (4 Bft) 95,74 %
15.11.2023 01:38 10,1 C 9,4 C 6,7 C 98 % 1008,7 hPa 0,0 l/m 0 min 0 min 0 W/m 35,4 km/h (5 Bft) 97,87 %
15.11.2023 01:40 10,1 C 9,4 C 6,7 C 98 % 1008,8 hPa 0,0 l/m 0 min 0 min 0 W/m 22,5 km/h (4 Bft) 95,74 %
15.11.2023 01:42 10,1 C 9,4 C 6,7 C 98 % 1008,7 hPa 0,0 l/m 0 min 0 min 0 W/m 16,1 km/h (3 Bft) 97,87 %
15.11.2023 01:44 10,1 C 9,4 C 6,7 C 98 % 1008,8 hPa 0,0 l/m 0 min 0 min 0 W/m 12,9 km/h (3 Bft) 97,83 %
15.11.2023 01:46 10,1 C 9,4 C 6,7 C 98 % 1008,8 hPa 0,0 l/m 0 min 0 min 0 W/m 16,1 km/h (3 Bft) 95,74 %
15.11.2023 01:48 10,1 C 9,4 C 6,7 C 98 % 1008,8 hPa 0,0 l/m 0 min 0 min 0 W/m 16,1 km/h (3 Bft) 97,87 %
15.11.2023 01:50 10,1 C 9,4 C 6,7 C 98 % 1009,0 hPa 0,0 l/m 0 min 0 min 0 W/m 16,1 km/h (3 Bft) 97,87 %
15.11.2023 01:52 10,1 C 9,4 C 6,7 C 98 % 1008,9 hPa 0,0 l/m 0 min 0 min 0 W/m 16,1 km/h (3 Bft) 95,74 %
15.11.2023 01:54 10,1 C 9,4 C 6,7 C 98 % 1009,0 hPa 0,0 l/m 0 min 0 min 0 W/m 19,3 km/h (3 Bft) 93,62 %
15.11.2023 01:56 10,1 C 9,4 C 6,7 C 98 % 1009,1 hPa 0,0 l/m 0 min 0 min 0 W/m 22,5 km/h (4 Bft) 91,49 %
15.11.2023 01:58 10,1 C 9,4 C 6,7 C 97 % 1009,2 hPa 0,0 l/m 0 min 0 min 0 W/m 16,1 km/h (3 Bft) 93,33 %
15.11.2023 02:00 10,1 C 9,4 C 6,7 C 97 % 1009,2 hPa 0,0 l/m 0 min 0 min 0 W/m 16,1 km/h (3 Bft) 93,62 %
15.11.2023 02:02 10,1 C 9,4 C 6,7 C 97 % 1009,2 hPa 0,0 l/m 0 min 0 min 0 W/m 12,9 km/h (3 Bft) 93,62 %
15.11.2023 02:04 10,1 C 9,4 C 6,7 C 97 % 1009,3 hPa 0,0 l/m 0 min 0 min 0 W/m 16,1 km/h (3 Bft) 95,92 %
15.11.2023 02:06 10,1 C 9,4 C 6,7 C 97 % 1009,3 hPa 0,0 l/m 0 min 0 min 0 W/m 19,3 km/h (3 Bft) 95,83 %
15.11.2023 02:08 10,1 C 9,4 C 6,7 C 97 % 1009,3 hPa 0,0 l/m 0 min 2 min 0 W/m 19,3 km/h (3 Bft) 95,74 %
15.11.2023 02:10 10,1 C 9,4 C 6,7 C 97 % 1009,3 hPa 0,0 l/m 0 min 2 min 0 W/m 29,0 km/h (5 Bft) 93,62 %
15.11.2023 02:12 10,1 C 9,4 C 6,7 C 97 % 1009,4 hPa 0,0 l/m 0 min 2 min 0 W/m 9,7 km/h (2 Bft) 93,48 %
15.11.2023 02:14 10,2 C 9,4 C 6,7 C 97 % 1009,4 hPa 0,0 l/m 0 min 2 min 0 W/m 16,1 km/h (3 Bft) 95,74 %
15.11.2023 02:16 10,2 C 9,4 C 6,7 C 97 % 1009,4 hPa 0,0 l/m 0 min 2 min 0 W/m 19,3 km/h (3 Bft) 95,74 %
15.11.2023 02:18 10,2 C 9,4 C 6,7 C 97 % 1009,4 hPa 0,0 l/m 0 min 0 min 0 W/m 25,7 km/h (4 Bft) 95,74 %
15.11.2023 02:20 10,2 C 9,4 C 6,7 C 97 % 1009,4 hPa 0,0 l/m 0 min 0 min 0 W/m 6,4 km/h (2 Bft) 94,59 %
15.11.2023 02:22 10,2 C 9,4 C 6,7 C 97 % 1009,5 hPa 0,0 l/m 0 min 0 min 0 W/m 16,1 km/h (3 Bft) 93,62 %
15.11.2023 02:24 10,2 C 9,4 C 6,7 C 97 % 1009,5 hPa 0,0 l/m 0 min 0 min 0 W/m 16,1 km/h (3 Bft) 93,62 %
15.11.2023 02:26 10,2 C 9,4 C 6,7 C 97 % 1009,6 hPa 0,0 l/m 0 min 0 min 0 W/m 12,9 km/h (3 Bft) 95,74 %
15.11.2023 02:28 10,2 C 9,4 C 6,7 C 97 % 1009,6 hPa 0,0 l/m 0 min 0 min 0 W/m 16,1 km/h (3 Bft) 95,74 %
15.11.2023 02:30 10,2 C 9,4 C 6,7 C 97 % 1009,7 hPa 0,0 l/m 0 min 0 min 0 W/m 16,1 km/h (3 Bft) 95,74 %
15.11.2023 02:32 10,2 C 9,4 C 6,7 C 97 % 1009,7 hPa 0,0 l/m 0 min 0 min 0 W/m 19,3 km/h (3 Bft) 95,65 %
15.11.2023 02:34 10,2 C 9,4 C 6,7 C 97 % 1009,7 hPa 0,0 l/m 0 min 0 min 0 W/m 16,1 km/h (3 Bft) 89,36 %
15.11.2023 02:36 10,2 C 9,4 C 6,7 C 97 % 1009,8 hPa 0,0 l/m 0 min 0 min 0 W/m 12,9 km/h (3 Bft) 93,62 %
15.11.2023 02:38 10,2 C 9,4 C 6,7 C 97 % 1009,8 hPa 0,0 l/m 0 min 0 min 0 W/m 16,1 km/h (3 Bft) 95,74 %
15.11.2023 02:40 10,2 C 9,4 C 6,7 C 97 % 1009,9 hPa 0,0 l/m 0 min 0 min 0 W/m 12,9 km/h (3 Bft) 95,74 %
15.11.2023 02:42 10,2 C 9,4 C 6,7 C 97 % 1009,9 hPa 0,0 l/m 0 min 0 min 0 W/m 12,9 km/h (3 Bft) 95,65 %
15.11.2023 02:44 10,2 C 9,4 C 6,7 C 97 % 1009,9 hPa 0,0 l/m 0 min 0 min 0 W/m 9,7 km/h (2 Bft) 100,00 %
15.11.2023 02:46 10,2 C 9,4 C 6,7 C 97 % 1010,0 hPa 0,0 l/m 0 min 0 min 0 W/m 16,1 km/h (3 Bft) 100,00 %
15.11.2023 02:48 10,2 C 9,4 C 6,7 C 97 % 1009,9 hPa 0,0 l/m 0 min 0 min 0 W/m 16,1 km/h (3 Bft) 100,00 %
15.11.2023 02:50 10,2 C 9,4 C 6,7 C 97 % 1010,0 hPa 0,0 l/m 0 min 0 min 0 W/m 12,9 km/h (3 Bft) 97,87 %
15.11.2023 02:52 10,2 C 9,4 C 6,7 C 97 % 1010,0 hPa 0,0 l/m 0 min 0 min 0 W/m 12,9 km/h (3 Bft) 100,00 %
15.11.2023 02:54 10,2 C 9,4 C 6,7 C 97 % 1010,1 hPa 0,0 l/m 0 min 0 min 0 W/m 22,5 km/h (4 Bft) 97,87 %
15.11.2023 02:56 10,2 C 9,4 C 6,7 C 97 % 1010,1 hPa 0,0 l/m 0 min 0 min 0 W/m 19,3 km/h (3 Bft) 97,83 %
15.11.2023 02:58 10,2 C 9,4 C 6,7 C 97 % 1010,1 hPa 0,0 l/m 0 min 0 min 0 W/m 12,9 km/h (3 Bft) 100,00 %
15.11.2023 03:00 10,2 C 9,4 C 6,7 C 97 % 1010,0 hPa 0,0 l/m 0 min 0 min 0 W/m 16,1 km/h (3 Bft) 97,87 %
15.11.2023 03:02 10,2 C 9,4 C 6,7 C 97 % 1010,0 hPa 0,0 l/m 0 min 0 min 0 W/m 19,3 km/h (3 Bft) 96,30 %
15.11.2023 03:04 10,2 C 9,4 C 6,7 C 97 % 1010,1 hPa 0,0 l/m 0 min 0 min 0 W/m 19,3 km/h (3 Bft) 100,00 %
15.11.2023 03:08 10,2 C 9,4 C 6,7 C 97 % 1010,1 hPa 0,0 l/m 0 min 0 min 0 W/m 16,1 km/h (3 Bft) 100,00 %
15.11.2023 03:09 10,2 C 9,4 C 6,7 C 97 % 1010,1 hPa 0,0 l/m 0 min 0 min 0 W/m 16,1 km/h (3 Bft) 100,00 %
15.11.2023 03:10 10,2 C 9,4 C 6,7 C 97 % 1010,1 hPa 0,0 l/m 0 min 0 min 0 W/m 25,7 km/h (4 Bft) 100,00 %
15.11.2023 03:14 10,2 C 9,4 C 6,7 C 97 % 1010,2 hPa 0,0 l/m 0 min 0 min 0 W/m 19,3 km/h (3 Bft) 97,87 %
15.11.2023 03:16 10,2 C 9,4 C 6,7 C 97 % 1010,2 hPa 0,0 l/m 0 min 0 min 0 W/m 16,1 km/h (3 Bft) 100,00 %
15.11.2023 03:18 10,2 C 9,4 C 6,7 C 97 % 1010,2 hPa 0,0 l/m 0 min 0 min 0 W/m 16,1 km/h (3 Bft) 100,00 %
15.11.2023 03:20 10,2 C 9,4 C 6,7 C 97 % 1010,3 hPa 0,0 l/m 0 min 0 min 0 W/m 16,1 km/h (3 Bft) 97,87 %
15.11.2023 03:22 10,2 C 9,4 C 6,7 C 97 % 1010,3 hPa 0,0 l/m 0 min 0 min 0 W/m 12,9 km/h (3 Bft) 97,83 %
15.11.2023 03:24 10,2 C 9,4 C 6,7 C 97 % 1010,3 hPa 0,0 l/m 0 min 0 min 0 W/m 19,3 km/h (3 Bft) 97,87 %
15.11.2023 03:26 10,2 C 9,4 C 6,7 C 97 % 1010,4 hPa 0,0 l/m 0 min 0 min 0 W/m 12,9 km/h (3 Bft) 97,87 %
15.11.2023 03:28 10,2 C 9,4 C 6,7 C 97 % 1010,4 hPa 0,0 l/m 0 min 0 min 0 W/m 16,1 km/h (3 Bft) 95,74 %
15.11.2023 03:30 10,2 C 9,4 C 6,7 C 97 % 1010,5 hPa 0,0 l/m 0 min 0 min 0 W/m 19,3 km/h (3 Bft) 95,74 %
15.11.2023 03:32 10,2 C 9,4 C 6,7 C 97 % 1010,5 hPa 0,0 l/m 0 min 0 min 0 W/m 19,3 km/h (3 Bft) 95,74 %
15.11.2023 03:34 10,3 C 9,4 C 6,7 C 97 % 1010,5 hPa 0,0 l/m 0 min 0 min 0 W/m 12,9 km/h (3 Bft) 97,87 %
15.11.2023 03:36 10,2 C 9,4 C 6,7 C 97 % 1010,5 hPa 0,0 l/m 0 min 0 min 0 W/m 12,9 km/h (3 Bft) 95,74 %
15.11.2023 03:38 10,3 C 9,4 C 6,7 C 97 % 1010,5 hPa 0,0 l/m 0 min 0 min 0 W/m 12,9 km/h (3 Bft) 95,74 %
15.11.2023 03:40 10,3 C 9,4 C 6,7 C 97 % 1010,5 hPa 0,0 l/m 0 min 0 min 0 W/m 12,9 km/h (3 Bft) 95,65 %
15.11.2023 03:42 10,3 C 9,4 C 6,7 C 97 % 1010,5 hPa 0,0 l/m 0 min 0 min 0 W/m 25,7 km/h (4 Bft) 97,87 %
15.11.2023 03:44 10,3 C 9,4 C 6,7 C 97 % 1010,6 hPa 0,0 l/m 0 min 0 min 0 W/m 19,3 km/h (3 Bft) 98,28 %
15.11.2023 03:46 10,3 C 9,4 C 6,7 C 97 % 1010,5 hPa 0,0 l/m 0 min 0 min 0 W/m 22,5 km/h (4 Bft) 97,92 %
15.11.2023 03:48 10,3 C 9,4 C 6,7 C 97 % 1010,5 hPa 0,0 l/m 0 min 0 min 0 W/m 12,9 km/h (3 Bft) 97,87 %
15.11.2023 03:50 10,3 C 9,4 C 6,7 C 97 % 1010,5 hPa 0,0 l/m 0 min 0 min 0 W/m 22,5 km/h (4 Bft) 97,83 %
15.11.2023 03:52 10,3 C 9,4 C 6,7 C 97 % 1010,6 hPa 0,0 l/m 0 min 0 min 0 W/m 19,3 km/h (3 Bft) 100,00 %
15.11.2023 03:54 10,3 C 9,4 C 6,7 C 97 % 1010,5 hPa 0,0 l/m 0 min 0 min 0 W/m 19,3 km/h (3 Bft) 100,00 %
15.11.2023 03:56 10,3 C 9,4 C 6,7 C 97 % 1010,5 hPa 0,0 l/m 0 min 0 min 0 W/m 16,1 km/h (3 Bft) 100,00 %
15.11.2023 03:58 10,3 C 9,4 C 6,7 C 97 % 1010,6 hPa 0,0 l/m 0 min 0 min 0 W/m 12,9 km/h (3 Bft) 100,00 %
15.11.2023 04:00 10,3 C 9,4 C 6,7 C 97 % 1010,6 hPa 0,0 l/m 0 min 0 min 0 W/m 19,3 km/h (3 Bft) 100,00 %
15.11.2023 04:02 10,2 C 9,4 C 6,7 C 97 % 1010,6 hPa 0,0 l/m 0 min 0 min 0 W/m 16,1 km/h (3 Bft) 100,00 %
15.11.2023 04:04 10,2 C 9,4 C 6,7 C 97 % 1010,7 hPa 0,0 l/m 0 min 0 min 0 W/m 22,5 km/h (4 Bft) 97,30 %
15.11.2023 04:08 10,2 C 9,4 C 6,7 C 97 % 1010,8 hPa 0,0 l/m 0 min 0 min 0 W/m 22,5 km/h (4 Bft) 100,00 %
15.11.2023 04:09 10,2 C 9,4 C 6,7 C 97 % 1010,8 hPa 0,0 l/m 0 min 0 min 0 W/m 12,9 km/h (3 Bft) 100,00 %
15.11.2023 04:10 10,2 C 9,4 C 6,7 C 97 % 1010,8 hPa 0,0 l/m 0 min 0 min 0 W/m 19,3 km/h (3 Bft) 100,00 %
15.11.2023 04:14 10,2 C 9,4 C 6,7 C 96 % 1010,8 hPa 0,0 l/m 0 min 0 min 0 W/m 19,3 km/h (3 Bft) 97,87 %
15.11.2023 04:16 10,2 C 9,4 C 6,7 C 96 % 1010,8 hPa 0,0 l/m 0 min 0 min 0 W/m 19,3 km/h (3 Bft) 97,87 %
15.11.2023 04:18 10,2 C 9,4 C 6,7 C 96 % 1010,9 hPa 0,0 l/m 0 min 0 min 0 W/m 19,3 km/h (3 Bft) 100,00 %
15.11.2023 04:20 10,2 C 9,4 C 6,7 C 96 % 1010,8 hPa 0,0 l/m 0 min 0 min 0 W/m 22,5 km/h (4 Bft) 97,87 %
15.11.2023 04:22 10,2 C 9,4 C 6,7 C 96 % 1010,9 hPa 0,0 l/m 0 min 0 min 0 W/m 22,5 km/h (4 Bft) 97,87 %
15.11.2023 04:24 10,2 C 9,4 C 6,7 C 96 % 1011,0 hPa 0,0 l/m 0 min 0 min 0 W/m 19,3 km/h (3 Bft) 100,00 %
15.11.2023 04:26 10,2 C 9,4 C 6,7 C 96 % 1011,0 hPa 0,0 l/m 0 min 0 min 0 W/m 16,1 km/h (3 Bft) 97,87 %
15.11.2023 04:28 10,2 C 9,4 C 6,7 C 96 % 1011,1 hPa 0,0 l/m 0 min 0 min 0 W/m 12,9 km/h (3 Bft) 58,70 %
15.11.2023 04:30 10,2 C 9,4 C 6,7 C 96 % 1011,1 hPa 0,0 l/m 0 min 0 min 0 W/m 16,1 km/h (3 Bft) 95,56 %
15.11.2023 04:32 10,2 C 9,4 C 6,7 C 96 % 1011,1 hPa 0,0 l/m 0 min 0 min 0 W/m 16,1 km/h (3 Bft) 97,87 %
15.11.2023 04:34 10,2 C 9,4 C 6,7 C 96 % 1011,1 hPa 0,0 l/m 0 min 0 min 0 W/m 12,9 km/h (3 Bft) 97,87 %
15.11.2023 04:36 10,2 C 9,4 C 6,7 C 96 % 1011,1 hPa 0,0 l/m 0 min 0 min 0 W/m 12,9 km/h (3 Bft) 93,62 %
15.11.2023 04:38 10,2 C 9,4 C 6,7 C 96 % 1011,2 hPa 0,0 l/m 0 min 0 min 0 W/m 19,3 km/h (3 Bft) 97,87 %
15.11.2023 04:40 10,2 C 9,4 C 6,7 C 96 % 1011,2 hPa 0,0 l/m 0 min 0 min 0 W/m 12,9 km/h (3 Bft) 97,87 %
15.11.2023 04:42 10,2 C 9,4 C 6,7 C 96 % 1011,2 hPa 0,0 l/m 0 min 0 min 0 W/m 16,1 km/h (3 Bft) 95,65 %
15.11.2023 04:44 10,2 C 9,4 C 6,7 C 96 % 1011,3 hPa 0,0 l/m 0 min 0 min 0 W/m 19,3 km/h (3 Bft) 97,87 %
15.11.2023 04:46 10,2 C 9,4 C 6,7 C 96 % 1011,3 hPa 0,0 l/m 0 min 0 min 0 W/m 6,4 km/h (2 Bft) 97,87 %
15.11.2023 04:48 10,2 C 9,4 C 6,7 C 96 % 1011,2 hPa 0,0 l/m 0 min 0 min 0 W/m 22,5 km/h (4 Bft) 97,87 %
15.11.2023 04:50 10,2 C 9,4 C 6,7 C 96 % 1011,2 hPa 0,0 l/m 0 min 0 min 0 W/m 19,3 km/h (3 Bft) 97,87 %
15.11.2023 04:52 10,2 C 9,4 C 6,7 C 96 % 1011,3 hPa 0,0 l/m 0 min 0 min 0 W/m 16,1 km/h (3 Bft) 97,87 %
15.11.2023 04:54 10,2 C 9,4 C 6,7 C 96 % 1011,4 hPa 0,0 l/m 0 min 0 min 0 W/m 22,5 km/h (4 Bft) 97,87 %
15.11.2023 04:56 10,2 C 9,4 C 6,7 C 96 % 1011,4 hPa 0,0 l/m 0 min 0 min 0 W/m 16,1 km/h (3 Bft) 93,75 %
15.11.2023 04:58 10,2 C 9,4 C 6,7 C 96 % 1011,5 hPa 0,0 l/m 0 min 0 min 0 W/m 25,7 km/h (4 Bft) 95,65 %
15.11.2023 05:00 10,2 C 9,4 C 6,7 C 96 % 1011,6 hPa 0,0 l/m 0 min 0 min 0 W/m 19,3 km/h (3 Bft) 97,87 %
15.11.2023 05:06 10,2 C 9,4 C 6,7 C 96 % 1011,6 hPa 0,0 l/m 0 min 0 min 0 W/m 16,1 km/h (3 Bft) 96,67 %
15.11.2023 05:08 10,2 C 9,4 C 6,7 C 96 % 1011,5 hPa 0,0 l/m 0 min 0 min 0 W/m 19,3 km/h (3 Bft) 95,74 %
15.11.2023 05:10 10,1 C 9,4 C 6,7 C 96 % 1011,6 hPa 0,0 l/m 0 min 0 min 0 W/m 19,3 km/h (3 Bft) 95,65 %
15.11.2023 05:12 10,1 C 9,4 C 6,7 C 96 % 1011,6 hPa 0,0 l/m 0 min 0 min 0 W/m 25,7 km/h (4 Bft) 95,74 %
15.11.2023 05:14 10,1 C 9,4 C 6,7 C 96 % 1011,6 hPa 0,0 l/m 0 min 0 min 0 W/m 19,3 km/h (3 Bft) 95,74 %
15.11.2023 05:16 10,1 C 9,4 C 6,7 C 96 % 1011,7 hPa 0,0 l/m 0 min 0 min 0 W/m 16,1 km/h (3 Bft) 93,62 %
15.11.2023 05:18 10,1 C 9,4 C 6,7 C 96 % 1011,7 hPa 0,0 l/m 0 min 0 min 0 W/m 16,1 km/h (3 Bft) 95,74 %
15.11.2023 05:20 10,1 C 9,4 C 6,7 C 96 % 1011,7 hPa 0,0 l/m 0 min 0 min 0 W/m 25,7 km/h (4 Bft) 95,74 %
15.11.2023 05:22 10,1 C 9,4 C 6,7 C 96 % 1011,8 hPa 0,0 l/m 0 min 0 min 0 W/m 19,3 km/h (3 Bft) 95,65 %
15.11.2023 05:24 10,1 C 9,4 C 6,7 C 96 % 1011,7 hPa 0,0 l/m 0 min 0 min 0 W/m 12,9 km/h (3 Bft) 93,62 %
15.11.2023 05:26 10,1 C 9,4 C 6,7 C 96 % 1011,8 hPa 0,0 l/m 0 min 0 min 0 W/m 22,5 km/h (4 Bft) 93,62 %
15.11.2023 05:28 10,1 C 9,4 C 6,7 C 96 % 1011,8 hPa 0,0 l/m 0 min 0 min 0 W/m 12,9 km/h (3 Bft) 93,62 %
15.11.2023 05:30 10,1 C 9,4 C 6,7 C 96 % 1011,8 hPa 0,0 l/m 0 min 0 min 0 W/m 12,9 km/h (3 Bft) 95,74 %
15.11.2023 05:32 10,1 C 9,4 C 6,7 C 96 % 1012,0 hPa 0,0 l/m 0 min 0 min 0 W/m 16,1 km/h (3 Bft) 95,74 %
15.11.2023 05:34 10,1 C 9,4 C 6,7 C 96 % 1011,9 hPa 0,0 l/m 0 min 0 min 0 W/m 38,6 km/h (5 Bft) 95,74 %
15.11.2023 05:36 10,1 C 9,4 C 6,7 C 96 % 1011,9 hPa 0,0 l/m 0 min 0 min 0 W/m 29,0 km/h (5 Bft) 95,74 %
15.11.2023 05:38 10,1 C 9,4 C 6,7 C 96 % 1011,9 hPa 0,0 l/m 0 min 0 min 0 W/m 12,9 km/h (3 Bft) 95,65 %
15.11.2023 05:40 10,1 C 9,4 C 6,1 C 96 % 1012,0 hPa 0,0 l/m 0 min 0 min 0 W/m 22,5 km/h (4 Bft) 97,87 %
15.11.2023 05:42 10,1 C 9,4 C 6,7 C 96 % 1012,0 hPa 0,0 l/m 0 min 0 min 0 W/m 16,1 km/h (3 Bft) 95,74 %
15.11.2023 05:44 10,1 C 9,4 C 6,7 C 96 % 1012,1 hPa 0,0 l/m 0 min 0 min 0 W/m 22,5 km/h (4 Bft) 95,74 %
15.11.2023 05:46 10,1 C 9,4 C 6,7 C 96 % 1012,2 hPa 0,0 l/m 0 min 0 min 0 W/m 19,3 km/h (3 Bft) 97,87 %
15.11.2023 05:48 10,1 C 9,4 C 6,7 C 96 % 1012,1 hPa 0,0 l/m 0 min 0 min 0 W/m 16,1 km/h (3 Bft) 95,74 %
15.11.2023 05:50 10,1 C 9,4 C 6,7 C 96 % 1012,0 hPa 0,0 l/m 0 min 0 min 0 W/m 22,5 km/h (4 Bft) 97,87 %
15.11.2023 05:52 10,1 C 9,4 C 6,7 C 96 % 1012,0 hPa 0,0 l/m 0 min 0 min 0 W/m 12,9 km/h (3 Bft) 100,00 %
15.11.2023 05:54 10,1 C 9,4 C 6,7 C 96 % 1012,1 hPa 0,0 l/m 0 min 2 min 0 W/m 35,4 km/h (5 Bft) 100,00 %
15.11.2023 05:56 10,1 C 9,4 C 6,7 C 96 % 1012,1 hPa 0,0 l/m 0 min 2 min 0 W/m 19,3 km/h (3 Bft) 100,00 %
15.11.2023 05:58 10,1 C 9,4 C 6,7 C 96 % 1012,1 hPa 0,0 l/m 0 min 2 min 0 W/m 22,5 km/h (4 Bft) 97,87 %
15.11.2023 06:00 10,1 C 9,4 C 6,7 C 96 % 1012,1 hPa 0,0 l/m 0 min 2 min 0 W/m 16,1 km/h (3 Bft) 97,83 %
15.11.2023 06:02 10,1 C 9,4 C 6,7 C 96 % 1012,1 hPa 0,0 l/m 0 min 0 min 0 W/m 12,9 km/h (3 Bft) 97,87 %
15.11.2023 06:04 10,1 C 9,4 C 6,7 C 96 % 1012,2 hPa 0,0 l/m 0 min 0 min 0 W/m 19,3 km/h (3 Bft) 97,96 %
15.11.2023 06:08 10,1 C 9,4 C 6,7 C 96 % 1012,3 hPa 0,0 l/m 0 min 0 min 0 W/m 25,7 km/h (4 Bft) 98,92 %
15.11.2023 06:10 10,0 C 9,4 C 6,7 C 96 % 1012,3 hPa 0,0 l/m 0 min 0 min 0 W/m 6,4 km/h (2 Bft) 100,00 %
15.11.2023 06:12 10,0 C 9,4 C 6,7 C 96 % 1012,2 hPa 0,0 l/m 0 min 0 min 0 W/m 6,4 km/h (2 Bft) 100,00 %
15.11.2023 06:16 10,0 C 9,4 C 6,7 C 96 % 1012,2 hPa 0,0 l/m 0 min 0 min 0 W/m 19,3 km/h (3 Bft) 78,02 %
15.11.2023 06:18 10,0 C 9,4 C 6,7 C 96 % 1012,3 hPa 0,0 l/m 0 min 0 min 0 W/m 12,9 km/h (3 Bft) 100,00 %
15.11.2023 06:20 10,0 C 9,4 C 6,7 C 96 % 1012,3 hPa 0,0 l/m 0 min 0 min 0 W/m 12,9 km/h (3 Bft) 100,00 %
15.11.2023 06:22 10,0 C 9,4 C 6,7 C 96 % 1012,4 hPa 0,0 l/m 0 min 0 min 0 W/m 12,9 km/h (3 Bft) 100,00 %
15.11.2023 06:24 10,0 C 9,4 C 6,7 C 96 % 1012,4 hPa 0,0 l/m 0 min 2 min 0 W/m 22,5 km/h (4 Bft) 100,00 %
15.11.2023 06:26 10,1 C 9,4 C 6,7 C 96 % 1012,4 hPa 0,0 l/m 0 min 2 min 0 W/m 16,1 km/h (3 Bft) 97,87 %
15.11.2023 06:28 10,1 C 9,4 C 6,7 C 96 % 1012,6 hPa 0,0 l/m 0 min 2 min 0 W/m 19,3 km/h (3 Bft) 100,00 %
15.11.2023 06:30 10,1 C 8,9 C 6,7 C 96 % 1012,5 hPa 0,2 l/m 0 min 2 min 0 W/m 16,1 km/h (3 Bft) 100,00 %
15.11.2023 06:32 10,0 C 8,9 C 6,7 C 96 % 1012,6 hPa 0,2 l/m 0 min 2 min 0 W/m 19,3 km/h (3 Bft) 97,87 %
15.11.2023 06:34 10,0 C 8,9 C 6,7 C 96 % 1012,5 hPa 0,2 l/m 0 min 2 min 0 W/m 19,3 km/h (3 Bft) 100,00 %
15.11.2023 06:36 9,9 C 8,3 C 6,1 C 96 % 1012,7 hPa 0,6 l/m 0 min 2 min 0 W/m 22,5 km/h (4 Bft) 97,83 %
15.11.2023 06:38 9,8 C 8,3 C 6,1 C 96 % 1012,6 hPa 0,2 l/m 0 min 2 min 0 W/m 16,1 km/h (3 Bft) 100,00 %
15.11.2023 06:40 9,8 C 8,3 C 6,1 C 96 % 1012,6 hPa 0,0 l/m 0 min 2 min 0 W/m 6,4 km/h (2 Bft) 97,87 %
15.11.2023 06:42 9,8 C 8,9 C 6,1 C 96 % 1012,6 hPa 0,0 l/m 0 min 2 min 0 W/m 6,4 km/h (2 Bft) 100,00 %
15.11.2023 06:44 9,8 C 8,9 C 6,1 C 96 % 1012,6 hPa 0,0 l/m 0 min 0 min 0 W/m 6,4 km/h (2 Bft) 100,00 %
15.11.2023 06:46 9,8 C 8,9 C 6,7 C 96 % 1012,7 hPa 0,0 l/m 0 min 0 min 0 W/m 12,9 km/h (3 Bft) 97,87 %
15.11.2023 06:48 9,8 C 8,9 C 6,7 C 96 % 1012,7 hPa 0,0 l/m 0 min 0 min 0 W/m 19,3 km/h (3 Bft) 97,87 %
15.11.2023 06:50 9,8 C 8,9 C 6,7 C 96 % 1012,6 hPa 0,0 l/m 0 min 0 min 0 W/m 9,7 km/h (2 Bft) 98,00 %
15.11.2023 06:52 9,8 C 8,9 C 6,7 C 96 % 1012,6 hPa 0,0 l/m 0 min 0 min 0 W/m 3,2 km/h (1 Bft) 97,83 %
15.11.2023 06:54 9,9 C 8,9 C 6,7 C 96 % 1012,7 hPa 0,0 l/m 0 min 0 min 0 W/m 6,4 km/h (2 Bft) 97,87 %
15.11.2023 06:56 9,9 C 8,9 C 6,7 C 96 % 1012,7 hPa 0,0 l/m 0 min 0 min 0 W/m 16,1 km/h (3 Bft) 97,87 %
15.11.2023 06:58 9,8 C 8,9 C 6,7 C 96 % 1012,8 hPa 0,0 l/m 0 min 0 min 0 W/m 6,4 km/h (2 Bft) 97,87 %
15.11.2023 07:00 9,8 C 8,9 C 6,7 C 96 % 1012,8 hPa 0,0 l/m 0 min 0 min 0 W/m 6,4 km/h (2 Bft) 97,87 %
15.11.2023 07:02 9,8 C 8,9 C 6,7 C 96 % 1012,7 hPa 0,0 l/m 0 min 0 min 0 W/m 16,1 km/h (3 Bft) 95,74 %
15.11.2023 07:04 9,8 C 8,9 C 6,7 C 96 % 1012,7 hPa 0,0 l/m 0 min 0 min 0 W/m 9,7 km/h (2 Bft) 93,48 %
15.11.2023 07:06 9,8 C 8,9 C 6,7 C 96 % 1012,6 hPa 0,0 l/m 0 min 0 min 0 W/m 6,4 km/h (2 Bft) 93,62 %
15.11.2023 07:08 9,8 C 8,9 C 6,7 C 96 % 1012,7 hPa 0,0 l/m 0 min 0 min 0 W/m 9,7 km/h (2 Bft) 95,74 %
15.11.2023 07:10 9,8 C 8,9 C 6,7 C 97 % 1012,7 hPa 0,0 l/m 0 min 0 min 0 W/m 12,9 km/h (3 Bft) 95,74 %
15.11.2023 07:12 9,8 C 8,9 C 6,7 C 97 % 1012,6 hPa 0,0 l/m 0 min 0 min 0 W/m 16,1 km/h (3 Bft) 95,74 %
15.11.2023 07:14 9,8 C 8,9 C 6,7 C 97 % 1012,8 hPa 0,0 l/m 0 min 0 min 0 W/m 19,3 km/h (3 Bft) 95,74 %
15.11.2023 07:16 9,8 C 8,9 C 6,7 C 97 % 1012,7 hPa 0,0 l/m 0 min 0 min 0 W/m 12,9 km/h (3 Bft) 95,65 %
15.11.2023 07:18 9,8 C 8,9 C 6,7 C 97 % 1012,7 hPa 0,0 l/m 0 min 0 min 0 W/m 19,3 km/h (3 Bft) 95,74 %
15.11.2023 07:20 9,8 C 8,9 C 6,7 C 97 % 1012,7 hPa 0,0 l/m 0 min 0 min 0 W/m 19,3 km/h (3 Bft) 95,74 %
15.11.2023 07:22 9,8 C 8,9 C 6,7 C 97 % 1012,6 hPa 0,0 l/m 0 min 2 min 0 W/m 6,4 km/h (2 Bft) 93,62 %
15.11.2023 07:24 9,8 C 8,9 C 6,7 C 97 % 1012,7 hPa 0,0 l/m 0 min 2 min 0 W/m 19,3 km/h (3 Bft) 95,74 %
15.11.2023 07:26 9,8 C 8,9 C 6,7 C 97 % 1012,7 hPa 0,0 l/m 0 min 0 min 0 W/m 16,1 km/h (3 Bft) 97,87 %
15.11.2023 07:28 9,8 C 8,9 C 6,7 C 97 % 1012,7 hPa 0,2 l/m 0 min 2 min 0 W/m 12,9 km/h (3 Bft) 97,83 %
15.11.2023 07:30 9,8 C 8,9 C 6,7 C 97 % 1012,7 hPa 0,2 l/m 0 min 2 min 0 W/m 12,9 km/h (3 Bft) 95,74 %
15.11.2023 07:32 9,8 C 8,9 C 6,7 C 97 % 1012,7 hPa 0,0 l/m 0 min 2 min 0 W/m 12,9 km/h (3 Bft) 97,83 %
15.11.2023 07:34 9,8 C 8,9 C 6,7 C 97 % 1012,7 hPa 0,0 l/m 0 min 0 min 0 W/m 12,9 km/h (3 Bft) 100,00 %
15.11.2023 07:36 9,8 C 8,9 C 6,7 C 97 % 1012,7 hPa 0,0 l/m 0 min 0 min 0 W/m 12,9 km/h (3 Bft) 100,00 %
15.11.2023 07:38 9,8 C 8,9 C 6,7 C 97 % 1012,8 hPa 0,0 l/m 0 min 0 min 0 W/m 19,3 km/h (3 Bft) 100,00 %
15.11.2023 07:40 9,8 C 8,9 C 6,7 C 97 % 1012,8 hPa 0,0 l/m 0 min 2 min 0 W/m 19,3 km/h (3 Bft) 100,00 %
15.11.2023 07:42 9,8 C 8,9 C 6,7 C 97 % 1012,8 hPa 0,0 l/m 0 min 2 min 0 W/m 12,9 km/h (3 Bft) 100,00 %
15.11.2023 07:44 9,8 C 8,9 C 6,7 C 97 % 1012,9 hPa 0,0 l/m 0 min 2 min 0 W/m 19,3 km/h (3 Bft) 100,00 %
15.11.2023 07:46 9,9 C 8,9 C 6,7 C 97 % 1012,9 hPa 0,0 l/m 0 min 2 min 0 W/m 12,9 km/h (3 Bft) 95,74 %
15.11.2023 07:48 9,8 C 8,9 C 6,7 C 97 % 1012,8 hPa 0,0 l/m 0 min 2 min 0 W/m 6,4 km/h (2 Bft) 97,87 %
15.11.2023 07:50 9,9 C 8,9 C 6,7 C 97 % 1012,9 hPa 0,0 l/m 0 min 2 min 0 W/m 6,4 km/h (2 Bft) 100,00 %
15.11.2023 07:52 9,8 C 8,9 C 6,7 C 97 % 1012,8 hPa 0,0 l/m 0 min 2 min 0 W/m 9,7 km/h (2 Bft) 97,87 %
15.11.2023 07:54 9,8 C 8,9 C 6,7 C 97 % 1012,8 hPa 0,0 l/m 0 min 0 min 0 W/m 16,1 km/h (3 Bft) 87,23 %
15.11.2023 07:56 9,8 C 8,9 C 6,7 C 97 % 1012,9 hPa 0,0 l/m 0 min 0 min 0 W/m 12,9 km/h (3 Bft) 62,50 %
15.11.2023 07:58 9,8 C 8,9 C 6,7 C 97 % 1012,9 hPa 0,0 l/m 0 min 0 min 0 W/m 19,3 km/h (3 Bft) 100,00 %
15.11.2023 08:00 9,8 C 8,9 C 6,7 C 97 % 1012,9 hPa 0,0 l/m 0 min 0 min 5 W/m 19,3 km/h (3 Bft) 97,87 %
15.11.2023 08:02 9,8 C 8,9 C 6,7 C 97 % 1013,0 hPa 0,0 l/m 0 min 0 min 5 W/m 6,4 km/h (2 Bft) 95,74 %
15.11.2023 08:04 9,8 C 8,9 C 6,7 C 97 % 1012,9 hPa 0,0 l/m 0 min 0 min 5 W/m 9,7 km/h (2 Bft) 97,73 %
15.11.2023 08:06 9,8 C 8,9 C 6,1 C 97 % 1013,0 hPa 0,0 l/m 0 min 0 min 5 W/m 16,1 km/h (3 Bft) 97,87 %
15.11.2023 08:08 9,8 C 8,9 C 6,1 C 97 % 1012,9 hPa 0,0 l/m 0 min 0 min 7 W/m 12,9 km/h (3 Bft) 97,87 %
15.11.2023 08:10 9,7 C 8,9 C 6,1 C 97 % 1013,0 hPa 0,0 l/m 0 min 0 min 7 W/m 9,7 km/h (2 Bft) 97,87 %
15.11.2023 08:12 9,7 C 8,9 C 6,1 C 97 % 1013,0 hPa 0,0 l/m 0 min 0 min 7 W/m 19,3 km/h (3 Bft) 97,87 %
15.11.2023 08:14 9,7 C 8,9 C 6,1 C 97 % 1013,0 hPa 0,0 l/m 0 min 0 min 8 W/m 12,9 km/h (3 Bft) 95,74 %
15.11.2023 08:16 9,7 C 8,9 C 6,1 C 97 % 1013,1 hPa 0,0 l/m 0 min 0 min 9 W/m 16,1 km/h (3 Bft) 95,65 %
15.11.2023 08:18 9,7 C 8,9 C 6,1 C 97 % 1013,1 hPa 0,0 l/m 0 min 0 min 11 W/m 22,5 km/h (4 Bft) 97,87 %
15.11.2023 08:20 9,7 C 8,9 C 6,1 C 97 % 1013,2 hPa 0,0 l/m 0 min 0 min 13 W/m 19,3 km/h (3 Bft) 95,74 %
15.11.2023 08:22 9,8 C 8,9 C 6,1 C 97 % 1013,2 hPa 0,0 l/m 0 min 0 min 17 W/m 9,7 km/h (2 Bft) 97,87 %
15.11.2023 08:24 9,8 C 8,9 C 6,1 C 97 % 1013,2 hPa 0,0 l/m 0 min 0 min 13 W/m 16,1 km/h (3 Bft) 97,87 %
15.11.2023 08:26 9,8 C 8,9 C 6,1 C 97 % 1013,3 hPa 0,0 l/m 0 min 0 min 14 W/m 19,3 km/h (3 Bft) 97,87 %
15.11.2023 08:28 9,8 C 8,9 C 6,7 C 97 % 1013,4 hPa 0,0 l/m 0 min 0 min 14 W/m 22,5 km/h (4 Bft) 97,87 %
15.11.2023 08:30 9,8 C 8,9 C 6,7 C 97 % 1013,4 hPa 0,0 l/m 0 min 0 min 10 W/m 25,7 km/h (4 Bft) 97,96 %
15.11.2023 08:32 9,8 C 8,9 C 6,7 C 97 % 1013,3 hPa 0,0 l/m 0 min 0 min 13 W/m 16,1 km/h (3 Bft) 95,74 %
15.11.2023 08:34 9,9 C 8,9 C 6,7 C 97 % 1013,3 hPa 0,0 l/m 0 min 0 min 22 W/m 16,1 km/h (3 Bft) 97,73 %
15.11.2023 08:36 9,9 C 8,9 C 6,7 C 97 % 1013,5 hPa 0,0 l/m 0 min 0 min 22 W/m 12,9 km/h (3 Bft) 97,87 %
15.11.2023 08:38 9,9 C 8,9 C 6,7 C 97 % 1013,5 hPa 0,0 l/m 0 min 0 min 19 W/m 19,3 km/h (3 Bft) 95,74 %
15.11.2023 08:40 9,9 C 8,9 C 6,7 C 97 % 1013,5 hPa 0,0 l/m 0 min 0 min 15 W/m 25,7 km/h (4 Bft) 97,87 %
15.11.2023 08:42 9,9 C 8,9 C 6,7 C 97 % 1013,5 hPa 0,0 l/m 0 min 0 min 17 W/m 19,3 km/h (3 Bft) 97,87 %
15.11.2023 08:44 9,9 C 9,4 C 6,7 C 97 % 1013,6 hPa 0,0 l/m 0 min 0 min 23 W/m 19,3 km/h (3 Bft) 97,83 %
15.11.2023 08:46 9,9 C 9,4 C 6,7 C 97 % 1013,5 hPa 0,0 l/m 0 min 0 min 30 W/m 19,3 km/h (3 Bft) 95,74 %
15.11.2023 08:48 9,9 C 9,4 C 6,7 C 96 % 1013,6 hPa 0,0 l/m 0 min 0 min 32 W/m 12,9 km/h (3 Bft) 97,87 %
15.11.2023 08:50 9,9 C 9,4 C 6,7 C 96 % 1013,6 hPa 0,0 l/m 0 min 0 min 36 W/m 12,9 km/h (3 Bft) 97,87 %
15.11.2023 08:52 9,9 C 9,4 C 6,7 C 96 % 1013,6 hPa 0,0 l/m 0 min 0 min 27 W/m 12,9 km/h (3 Bft) 100,00 %
15.11.2023 08:54 9,9 C 9,4 C 6,7 C 96 % 1013,6 hPa 0,0 l/m 0 min 0 min 32 W/m 12,9 km/h (3 Bft) 98,04 %
15.11.2023 08:56 9,9 C 9,4 C 6,7 C 96 % 1013,7 hPa 0,0 l/m 0 min 0 min 59 W/m 16,1 km/h (3 Bft) 95,74 %
15.11.2023 08:58 9,9 C 9,4 C 6,7 C 96 % 1013,8 hPa 0,0 l/m 0 min 0 min 60 W/m 22,5 km/h (4 Bft) 95,74 %
15.11.2023 09:00 9,9 C 9,4 C 6,7 C 96 % 1013,7 hPa 0,0 l/m 0 min 0 min 46 W/m 22,5 km/h (4 Bft) 97,87 %
15.11.2023 09:02 9,9 C 9,4 C 6,7 C 96 % 1013,8 hPa 0,0 l/m 0 min 0 min 31 W/m 16,1 km/h (3 Bft) 95,74 %
15.11.2023 09:04 9,9 C 9,4 C 6,7 C 96 % 1013,8 hPa 0,0 l/m 0 min 0 min 30 W/m 16,1 km/h (3 Bft) 97,62 %
15.11.2023 09:06 9,9 C 9,4 C 6,1 C 96 % 1013,9 hPa 0,0 l/m 0 min 0 min 31 W/m 12,9 km/h (3 Bft) 96,23 %
15.11.2023 09:08 9,9 C 9,4 C 6,1 C 96 % 1013,9 hPa 0,0 l/m 0 min 0 min 40 W/m 25,7 km/h (4 Bft) 93,62 %
15.11.2023 09:10 9,9 C 9,4 C 6,1 C 96 % 1014,0 hPa 0,0 l/m 0 min 0 min 50 W/m 16,1 km/h (3 Bft) 97,87 %
15.11.2023 09:12 9,9 C 9,4 C 6,7 C 96 % 1014,0 hPa 0,0 l/m 0 min 0 min 52 W/m 19,3 km/h (3 Bft) 97,87 %
15.11.2023 09:14 10,0 C 9,4 C 6,7 C 96 % 1014,0 hPa 0,0 l/m 0 min 0 min 60 W/m 22,5 km/h (4 Bft) 97,87 %
15.11.2023 09:16 10,0 C 9,4 C 6,7 C 96 % 1014,1 hPa 0,0 l/m 0 min 0 min 70 W/m 16,1 km/h (3 Bft) 95,74 %
15.11.2023 09:20 10,1 C 9,4 C 6,7 C 96 % 1014,1 hPa 0,0 l/m 0 min 0 min 40 W/m 12,9 km/h (3 Bft) 93,75 %
15.11.2023 09:22 10,1 C 9,4 C 6,7 C 96 % 1014,2 hPa 0,0 l/m 0 min 0 min 38 W/m 12,9 km/h (3 Bft) 95,65 %
15.11.2023 09:24 10,1 C 9,4 C 6,7 C 96 % 1014,1 hPa 0,0 l/m 0 min 0 min 32 W/m 29,0 km/h (5 Bft) 95,74 %
15.11.2023 09:26 10,1 C 9,4 C 6,7 C 96 % 1014,2 hPa 0,0 l/m 0 min 0 min 38 W/m 25,7 km/h (4 Bft) 97,87 %
15.11.2023 09:28 10,1 C 9,4 C 6,7 C 96 % 1014,2 hPa 0,0 l/m 0 min 0 min 31 W/m 6,4 km/h (2 Bft) 97,14 %
15.11.2023 09:30 10,1 C 9,4 C 6,7 C 96 % 1014,2 hPa 0,0 l/m 0 min 0 min 31 W/m 12,9 km/h (3 Bft) 94,34 %
15.11.2023 09:32 10,1 C 9,4 C 6,7 C 96 % 1014,3 hPa 0,0 l/m 0 min 0 min 43 W/m 12,9 km/h (3 Bft) 97,87 %
15.11.2023 09:34 10,1 C 9,4 C 6,7 C 96 % 1014,2 hPa 0,0 l/m 0 min 0 min 40 W/m 9,7 km/h (2 Bft) 97,87 %
15.11.2023 09:36 10,2 C 9,4 C 6,7 C 96 % 1014,4 hPa 0,0 l/m 0 min 0 min 27 W/m 6,4 km/h (2 Bft) 97,87 %
15.11.2023 09:38 10,2 C 9,4 C 6,7 C 95 % 1014,3 hPa 0,0 l/m 0 min 0 min 26 W/m 12,9 km/h (3 Bft) 97,87 %
15.11.2023 09:40 10,2 C 9,4 C 6,7 C 95 % 1014,4 hPa 0,0 l/m 0 min 0 min 35 W/m 16,1 km/h (3 Bft) 100,00 %
15.11.2023 09:42 10,2 C 9,4 C 6,7 C 95 % 1014,4 hPa 0,0 l/m 0 min 0 min 35 W/m 12,9 km/h (3 Bft) 97,87 %
15.11.2023 09:44 10,2 C 9,4 C 6,7 C 95 % 1014,4 hPa 0,0 l/m 0 min 0 min 33 W/m 9,7 km/h (2 Bft) 95,65 %
15.11.2023 09:46 10,2 C 9,4 C 6,7 C 95 % 1014,5 hPa 0,0 l/m 0 min 0 min 42 W/m 16,1 km/h (3 Bft) 97,87 %
15.11.2023 09:48 10,2 C 10,0 C 6,7 C 95 % 1014,5 hPa 0,0 l/m 0 min 0 min 35 W/m 16,1 km/h (3 Bft) 97,87 %
15.11.2023 09:50 10,2 C 10,0 C 6,7 C 95 % 1014,5 hPa 0,0 l/m 0 min 0 min 24 W/m 16,1 km/h (3 Bft) 95,74 %
15.11.2023 09:52 10,2 C 10,0 C 6,7 C 95 % 1014,6 hPa 0,0 l/m 0 min 0 min 25 W/m 19,3 km/h (3 Bft) 97,87 %
15.11.2023 09:54 10,2 C 10,0 C 6,7 C 95 % 1014,5 hPa 0,0 l/m 0 min 0 min 34 W/m 6,4 km/h (2 Bft) 97,87 %
15.11.2023 09:56 10,2 C 10,0 C 6,7 C 95 % 1014,6 hPa 0,0 l/m 0 min 0 min 58 W/m 6,4 km/h (2 Bft) 95,74 %
15.11.2023 09:58 10,2 C 10,0 C 6,7 C 95 % 1014,5 hPa 0,0 l/m 0 min 0 min 69 W/m 9,7 km/h (2 Bft) 100,00 %
15.11.2023 10:00 10,2 C 10,0 C 6,7 C 95 % 1014,6 hPa 0,0 l/m 0 min 0 min 81 W/m 9,7 km/h (2 Bft) 100,00 %
15.11.2023 10:02 10,3 C 10,0 C 6,7 C 95 % 1014,6 hPa 0,0 l/m 0 min 0 min 82 W/m 12,9 km/h (3 Bft) 100,00 %
15.11.2023 10:04 10,3 C 10,0 C 6,7 C 95 % 1014,6 hPa 0,0 l/m 0 min 0 min 74 W/m 12,9 km/h (3 Bft) 100,00 %
15.11.2023 10:08 10,4 C 10,6 C 6,7 C 95 % 1014,6 hPa 0,0 l/m 0 min 0 min 107 W/m 19,3 km/h (3 Bft) 97,89 %
15.11.2023 10:09 10,4 C 10,6 C 6,7 C 95 % 1014,7 hPa 0,0 l/m 1 min 0 min 134 W/m 19,3 km/h (3 Bft) 100,00 %
15.11.2023 10:10 10,4 C 10,6 C 6,7 C 95 % 1014,7 hPa 0,0 l/m 0 min 0 min 118 W/m 19,3 km/h (3 Bft) 100,00 %
15.11.2023 10:14 10,4 C 10,0 C 6,7 C 95 % 1014,7 hPa 0,0 l/m 0 min 0 min 59 W/m 16,1 km/h (3 Bft) 100,00 %
15.11.2023 10:16 10,5 C 10,0 C 6,7 C 94 % 1014,7 hPa 0,0 l/m 0 min 0 min 59 W/m 12,9 km/h (3 Bft) 100,00 %
15.11.2023 10:18 10,5 C 10,0 C 6,7 C 94 % 1014,8 hPa 0,0 l/m 0 min 0 min 80 W/m 12,9 km/h (3 Bft) 100,00 %
15.11.2023 10:20 10,5 C 10,6 C 6,7 C 94 % 1014,8 hPa 0,0 l/m 0 min 0 min 126 W/m 12,9 km/h (3 Bft) 100,00 %
15.11.2023 10:22 10,6 C 10,6 C 6,7 C 94 % 1014,8 hPa 0,0 l/m 0 min 0 min 127 W/m 19,3 km/h (3 Bft) 97,87 %
15.11.2023 10:24 10,6 C 10,6 C 6,7 C 94 % 1014,9 hPa 0,0 l/m 0 min 0 min 98 W/m 19,3 km/h (3 Bft) 100,00 %
15.11.2023 10:26 10,6 C 10,6 C 6,7 C 94 % 1014,8 hPa 0,0 l/m 0 min 0 min 87 W/m 12,9 km/h (3 Bft) 100,00 %
15.11.2023 10:28 10,6 C 10,6 C 6,7 C 94 % 1014,9 hPa 0,0 l/m 0 min 0 min 91 W/m 16,1 km/h (3 Bft) 97,87 %
15.11.2023 10:30 10,7 C 10,6 C 6,7 C 94 % 1014,9 hPa 0,0 l/m 0 min 0 min 82 W/m 12,9 km/h (3 Bft) 100,00 %
15.11.2023 10:32 10,7 C 10,6 C 6,7 C 94 % 1014,8 hPa 0,0 l/m 0 min 0 min 103 W/m 16,1 km/h (3 Bft) 97,83 %
15.11.2023 10:34 10,7 C 10,6 C 6,7 C 94 % 1014,9 hPa 0,0 l/m 0 min 0 min 120 W/m 12,9 km/h (3 Bft) 100,00 %
15.11.2023 10:36 10,7 C 10,6 C 6,7 C 94 % 1014,9 hPa 0,0 l/m 2 min 0 min 155 W/m 12,9 km/h (3 Bft) 100,00 %
15.11.2023 10:38 10,7 C 10,6 C 6,7 C 94 % 1014,9 hPa 0,0 l/m 2 min 0 min 154 W/m 16,1 km/h (3 Bft) 97,87 %
15.11.2023 10:40 10,8 C 10,6 C 7,2 C 93 % 1014,8 hPa 0,0 l/m 2 min 0 min 170 W/m 16,1 km/h (3 Bft) 100,00 %
15.11.2023 10:42 10,8 C 11,1 C 7,2 C 93 % 1014,8 hPa 0,0 l/m 2 min 0 min 175 W/m 16,1 km/h (3 Bft) 100,00 %
15.11.2023 10:44 10,8 C 11,1 C 7,2 C 93 % 1014,9 hPa 0,0 l/m 0 min 0 min 148 W/m 16,1 km/h (3 Bft) 100,00 %
15.11.2023 10:46 10,9 C 11,1 C 7,2 C 93 % 1014,9 hPa 0,0 l/m 0 min 0 min 128 W/m 16,1 km/h (3 Bft) 97,83 %
15.11.2023 10:48 10,9 C 10,6 C 7,2 C 93 % 1014,9 hPa 0,0 l/m 0 min 0 min 109 W/m 16,1 km/h (3 Bft) 97,87 %
15.11.2023 10:50 10,9 C 10,6 C 7,2 C 93 % 1014,9 hPa 0,0 l/m 0 min 0 min 93 W/m 16,1 km/h (3 Bft) 97,87 %
15.11.2023 10:52 10,9 C 10,6 C 7,2 C 93 % 1014,9 hPa 0,0 l/m 0 min 0 min 82 W/m 16,1 km/h (3 Bft) 95,74 %
15.11.2023 10:54 10,9 C 10,6 C 6,7 C 93 % 1014,9 hPa 0,0 l/m 0 min 0 min 72 W/m 16,1 km/h (3 Bft) 97,87 %
15.11.2023 10:56 10,9 C 10,6 C 6,7 C 93 % 1014,9 hPa 0,0 l/m 0 min 0 min 74 W/m 19,3 km/h (3 Bft) 97,87 %
15.11.2023 10:58 10,9 C 10,6 C 6,7 C 92 % 1015,0 hPa 0,0 l/m 0 min 0 min 84 W/m 16,1 km/h (3 Bft) 97,92 %
15.11.2023 11:00 10,9 C 10,6 C 6,7 C 92 % 1014,9 hPa 0,0 l/m 0 min 0 min 83 W/m 12,9 km/h (3 Bft) 97,83 %
15.11.2023 11:02 10,9 C 10,6 C 6,7 C 92 % 1015,0 hPa 0,0 l/m 0 min 0 min 55 W/m 16,1 km/h (3 Bft) 97,87 %
15.11.2023 11:04 10,9 C 10,6 C 6,7 C 92 % 1014,9 hPa 0,0 l/m 0 min 0 min 68 W/m 16,1 km/h (3 Bft) 95,65 %
15.11.2023 11:08 10,9 C 11,1 C 6,7 C 92 % 1014,9 hPa 0,0 l/m 0 min 0 min 131 W/m 16,1 km/h (3 Bft) 95,74 %
15.11.2023 11:09 10,9 C 11,1 C 6,7 C 92 % 1015,0 hPa 0,0 l/m 1 min 0 min 172 W/m 12,9 km/h (3 Bft) 91,30 %
15.11.2023 11:10 10,9 C 11,1 C 7,2 C 92 % 1015,0 hPa 0,0 l/m 0 min 0 min 157 W/m 16,1 km/h (3 Bft) 98,25 %
15.11.2023 11:14 11,1 C 11,1 C 7,2 C 92 % 1015,0 hPa 0,0 l/m 0 min 0 min 131 W/m 19,3 km/h (3 Bft) 93,48 %
15.11.2023 11:16 11,1 C 11,1 C 7,2 C 92 % 1015,0 hPa 0,0 l/m 0 min 0 min 120 W/m 12,9 km/h (3 Bft) 95,83 %
15.11.2023 11:18 11,2 C 11,1 C 7,2 C 92 % 1015,0 hPa 0,0 l/m 0 min 0 min 125 W/m 12,9 km/h (3 Bft) 95,74 %
15.11.2023 11:20 11,2 C 11,1 C 7,2 C 91 % 1015,0 hPa 0,0 l/m 0 min 0 min 94 W/m 6,4 km/h (2 Bft) 97,87 %
15.11.2023 11:22 11,2 C 11,1 C 7,2 C 91 % 1015,1 hPa 0,0 l/m 0 min 0 min 110 W/m 19,3 km/h (3 Bft) 91,49 %
15.11.2023 11:24 11,2 C 11,1 C 6,7 C 91 % 1015,1 hPa 0,0 l/m 0 min 0 min 128 W/m 19,3 km/h (3 Bft) 95,74 %
15.11.2023 11:26 11,2 C 11,1 C 7,2 C 91 % 1015,1 hPa 0,0 l/m 0 min 0 min 153 W/m 12,9 km/h (3 Bft) 95,92 %
15.11.2023 11:28 11,2 C 11,1 C 7,2 C 91 % 1015,1 hPa 0,0 l/m 0 min 0 min 116 W/m 12,9 km/h (3 Bft) 97,83 %
15.11.2023 11:30 11,2 C 11,1 C 7,2 C 91 % 1015,2 hPa 0,0 l/m 0 min 0 min 107 W/m 16,1 km/h (3 Bft) 95,74 %
15.11.2023 11:32 11,2 C 11,1 C 7,2 C 91 % 1015,2 hPa 0,0 l/m 0 min 0 min 111 W/m 12,9 km/h (3 Bft) 97,87 %
15.11.2023 11:34 11,2 C 11,1 C 7,2 C 91 % 1015,1 hPa 0,0 l/m 0 min 0 min 110 W/m 12,9 km/h (3 Bft) 95,74 %
15.11.2023 11:36 11,2 C 11,1 C 7,2 C 91 % 1015,2 hPa 0,0 l/m 0 min 0 min 85 W/m 9,7 km/h (2 Bft) 97,87 %
15.11.2023 11:38 11,2 C 11,1 C 6,7 C 91 % 1015,2 hPa 0,0 l/m 0 min 0 min 118 W/m 12,9 km/h (3 Bft) 95,74 %
15.11.2023 11:40 11,2 C 11,1 C 7,2 C 91 % 1015,2 hPa 0,0 l/m 0 min 0 min 166 W/m 6,4 km/h (2 Bft) 97,87 %
15.11.2023 11:42 11,2 C 11,1 C 7,2 C 91 % 1015,1 hPa 0,0 l/m 0 min 0 min 132 W/m 6,4 km/h (2 Bft) 97,83 %
15.11.2023 11:44 11,3 C 11,1 C 7,2 C 91 % 1015,1 hPa 0,0 l/m 0 min 0 min 107 W/m 6,4 km/h (2 Bft) 93,62 %
15.11.2023 11:46 11,3 C 11,1 C 7,2 C 91 % 1015,1 hPa 0,0 l/m 0 min 0 min 109 W/m 12,9 km/h (3 Bft) 97,87 %
15.11.2023 11:48 11,3 C 11,1 C 7,2 C 91 % 1015,1 hPa 0,0 l/m 0 min 0 min 122 W/m 16,1 km/h (3 Bft) 95,74 %
15.11.2023 11:50 11,3 C 11,1 C 7,2 C 91 % 1015,1 hPa 0,0 l/m 0 min 0 min 113 W/m 12,9 km/h (3 Bft) 97,87 %
15.11.2023 11:52 11,3 C 11,1 C 6,7 C 90 % 1015,1 hPa 0,0 l/m 0 min 0 min 106 W/m 12,9 km/h (3 Bft) 97,87 %
15.11.2023 11:54 11,3 C 11,1 C 7,2 C 90 % 1015,1 hPa 0,0 l/m 0 min 0 min 124 W/m 16,1 km/h (3 Bft) 97,87 %
15.11.2023 11:56 11,3 C 11,1 C 7,2 C 90 % 1015,1 hPa 0,0 l/m 0 min 0 min 128 W/m 12,9 km/h (3 Bft) 98,08 %
15.11.2023 11:58 11,3 C 11,1 C 7,2 C 90 % 1015,1 hPa 0,0 l/m 0 min 0 min 138 W/m 29,0 km/h (5 Bft) 95,74 %
15.11.2023 12:00 11,3 C 11,1 C 6,7 C 90 % 1015,1 hPa 0,0 l/m 0 min 0 min 119 W/m 16,1 km/h (3 Bft) 97,87 %
15.11.2023 12:02 11,3 C 11,1 C 6,7 C 89 % 1015,1 hPa 0,0 l/m 0 min 0 min 102 W/m 25,7 km/h (4 Bft) 95,74 %
15.11.2023 12:04 11,3 C 11,1 C 6,7 C 89 % 1015,1 hPa 0,0 l/m 0 min 0 min 115 W/m 16,1 km/h (3 Bft) 97,87 %
15.11.2023 12:08 11,4 C 11,7 C 6,7 C 89 % 1015,1 hPa 0,0 l/m 0 min 0 min 133 W/m 16,1 km/h (3 Bft) 96,59 %
15.11.2023 12:10 11,4 C 11,7 C 6,7 C 89 % 1015,0 hPa 0,0 l/m 0 min 0 min 109 W/m 16,1 km/h (3 Bft) 97,87 %
15.11.2023 12:12 11,5 C 11,7 C 6,7 C 89 % 1015,1 hPa 0,0 l/m 0 min 0 min 125 W/m 19,3 km/h (3 Bft) 97,83 %
15.11.2023 12:16 11,6 C 11,7 C 7,2 C 89 % 1015,1 hPa 0,0 l/m 0 min 0 min 160 W/m 19,3 km/h (3 Bft) 97,87 %
15.11.2023 12:18 11,6 C 11,7 C 7,2 C 89 % 1015,1 hPa 0,0 l/m 0 min 0 min 134 W/m 16,1 km/h (3 Bft) 97,87 %
15.11.2023 12:20 11,6 C 11,7 C 6,7 C 88 % 1015,1 hPa 0,0 l/m 0 min 0 min 112 W/m 19,3 km/h (3 Bft) 95,74 %
15.11.2023 12:22 11,6 C 11,7 C 6,7 C 88 % 1015,1 hPa 0,0 l/m 0 min 0 min 129 W/m 19,3 km/h (3 Bft) 97,87 %
15.11.2023 12:24 11,6 C 11,7 C 6,7 C 88 % 1015,1 hPa 0,0 l/m 0 min 0 min 124 W/m 12,9 km/h (3 Bft) 95,74 %
15.11.2023 12:26 11,6 C 11,7 C 6,7 C 88 % 1015,1 hPa 0,0 l/m 0 min 0 min 116 W/m 16,1 km/h (3 Bft) 95,65 %
15.11.2023 12:28 11,6 C 11,7 C 6,7 C 88 % 1015,2 hPa 0,0 l/m 0 min 0 min 142 W/m 16,1 km/h (3 Bft) 97,87 %
15.11.2023 12:30 11,6 C 11,7 C 7,2 C 88 % 1015,1 hPa 0,0 l/m 0 min 0 min 149 W/m 16,1 km/h (3 Bft) 95,74 %
15.11.2023 12:32 11,7 C 11,7 C 7,2 C 88 % 1015,1 hPa 0,0 l/m 0 min 0 min 157 W/m 16,1 km/h (3 Bft) 97,87 %
15.11.2023 12:34 11,7 C 11,7 C 7,8 C 88 % 1015,2 hPa 0,0 l/m 0 min 0 min 124 W/m 16,1 km/h (3 Bft) 100,00 %
15.11.2023 12:36 11,7 C 11,7 C 7,8 C 88 % 1015,1 hPa 0,0 l/m 0 min 0 min 150 W/m 12,9 km/h (3 Bft) 97,87 %
15.11.2023 12:38 11,7 C 11,7 C 7,8 C 87 % 1015,1 hPa 0,0 l/m 0 min 0 min 159 W/m 22,5 km/h (4 Bft) 100,00 %
15.11.2023 12:40 11,7 C 11,7 C 7,8 C 87 % 1015,2 hPa 0,0 l/m 0 min 0 min 124 W/m 9,7 km/h (2 Bft) 100,00 %
15.11.2023 12:42 11,7 C 11,7 C 7,8 C 87 % 1015,1 hPa 0,0 l/m 0 min 0 min 70 W/m 25,7 km/h (4 Bft) 100,00 %
15.11.2023 12:44 11,7 C 11,1 C 7,8 C 87 % 1015,1 hPa 0,0 l/m 0 min 0 min 48 W/m 19,3 km/h (3 Bft) 100,00 %
15.11.2023 12:46 11,6 C 11,1 C 7,8 C 86 % 1015,1 hPa 0,0 l/m 0 min 0 min 38 W/m 16,1 km/h (3 Bft) 97,87 %
15.11.2023 12:48 11,6 C 11,1 C 7,8 C 86 % 1015,1 hPa 0,0 l/m 0 min 0 min 35 W/m 19,3 km/h (3 Bft) 97,87 %
15.11.2023 12:50 11,6 C 11,1 C 7,8 C 86 % 1015,1 hPa 0,0 l/m 0 min 0 min 49 W/m 6,4 km/h (2 Bft) 97,87 %
15.11.2023 12:52 11,5 C 11,1 C 7,8 C 87 % 1015,1 hPa 0,0 l/m 0 min 0 min 53 W/m 12,9 km/h (3 Bft) 97,87 %
15.11.2023 12:54 11,4 C 10,6 C 7,8 C 87 % 1015,1 hPa 0,0 l/m 0 min 0 min 32 W/m 12,9 km/h (3 Bft) 97,83 %
15.11.2023 12:56 11,4 C 10,6 C 7,8 C 87 % 1015,1 hPa 0,0 l/m 0 min 0 min 28 W/m 6,4 km/h (2 Bft) 98,04 %
15.11.2023 12:58 11,4 C 10,6 C 7,2 C 87 % 1015,1 hPa 0,0 l/m 0 min 0 min 51 W/m 6,4 km/h (2 Bft) 97,62 %
15.11.2023 13:00 11,3 C 11,1 C 7,2 C 87 % 1015,1 hPa 0,0 l/m 0 min 0 min 77 W/m 9,7 km/h (2 Bft) 93,62 %
15.11.2023 13:02 11,3 C 11,7 C 7,8 C 88 % 1015,2 hPa 0,0 l/m 0 min 0 min 90 W/m 12,9 km/h (3 Bft) 97,14 %
15.11.2023 13:04 11,4 C 12,2 C 7,8 C 88 % 1015,1 hPa 0,0 l/m 0 min 0 min 111 W/m 12,9 km/h (3 Bft) 98,08 %
15.11.2023 13:08 11,6 C 14,4 C 7,8 C 88 % 1015,1 hPa 0,0 l/m 0 min 0 min 153 W/m 16,1 km/h (3 Bft) 97,89 %
15.11.2023 13:09 11,6 C 14,4 C 7,8 C 88 % 1015,2 hPa 0,0 l/m 1 min 0 min 172 W/m 12,9 km/h (3 Bft) 100,00 %
15.11.2023 13:12 11,8 C 14,4 C 8,3 C 87 % 1015,2 hPa 0,0 l/m 3 min 0 min 167 W/m 22,5 km/h (4 Bft) 97,14 %
15.11.2023 13:14 11,8 C 14,4 C 8,3 C 87 % 1015,2 hPa 0,0 l/m 2 min 0 min 332 W/m 25,7 km/h (4 Bft) 95,74 %
15.11.2023 13:16 11,9 C 13,9 C 8,3 C 86 % 1015,1 hPa 0,0 l/m 2 min 0 min 305 W/m 19,3 km/h (3 Bft) 97,87 %
15.11.2023 13:18 12,0 C 12,8 C 8,3 C 86 % 1015,2 hPa 0,0 l/m 2 min 0 min 184 W/m 32,2 km/h (5 Bft) 97,83 %
15.11.2023 13:20 12,0 C 12,8 C 8,3 C 85 % 1015,1 hPa 0,0 l/m 0 min 0 min 152 W/m 19,3 km/h (3 Bft) 95,74 %
15.11.2023 13:22 12,1 C 13,3 C 8,3 C 85 % 1015,1 hPa 0,0 l/m 2 min 0 min 381 W/m 22,5 km/h (4 Bft) 100,00 %
15.11.2023 13:24 12,1 C 12,8 C 8,3 C 85 % 1015,1 hPa 0,0 l/m 2 min 0 min 308 W/m 16,1 km/h (3 Bft) 100,00 %
15.11.2023 13:26 12,1 C 12,8 C 8,3 C 85 % 1015,1 hPa 0,0 l/m 2 min 0 min 170 W/m 12,9 km/h (3 Bft) 100,00 %
15.11.2023 13:28 12,1 C 12,2 C 8,3 C 84 % 1015,1 hPa 0,0 l/m 2 min 0 min 172 W/m 25,7 km/h (4 Bft) 100,00 %
15.11.2023 13:30 12,1 C 12,2 C 8,3 C 84 % 1015,1 hPa 0,0 l/m 2 min 0 min 172 W/m 16,1 km/h (3 Bft) 97,87 %
15.11.2023 13:32 12,1 C 12,2 C 8,3 C 84 % 1015,2 hPa 0,0 l/m 0 min 0 min 99 W/m 22,5 km/h (4 Bft) 100,00 %
15.11.2023 13:34 12,0 C 11,7 C 8,3 C 84 % 1015,1 hPa 0,0 l/m 0 min 0 min 69 W/m 16,1 km/h (3 Bft) 100,00 %
15.11.2023 13:36 11,9 C 11,7 C 8,3 C 84 % 1015,2 hPa 0,0 l/m 0 min 0 min 106 W/m 19,3 km/h (3 Bft) 100,00 %
15.11.2023 13:38 11,9 C 12,2 C 8,3 C 84 % 1015,2 hPa 0,0 l/m 2 min 0 min 184 W/m 29,0 km/h (5 Bft) 100,00 %
15.11.2023 13:40 11,9 C 12,2 C 8,3 C 84 % 1015,1 hPa 0,0 l/m 0 min 0 min 148 W/m 16,1 km/h (3 Bft) 100,00 %
15.11.2023 13:42 11,9 C 11,7 C 8,3 C 84 % 1015,2 hPa 0,0 l/m 0 min 0 min 74 W/m 16,1 km/h (3 Bft) 97,83 %
15.11.2023 13:44 11,8 C 11,7 C 8,3 C 84 % 1015,1 hPa 0,0 l/m 0 min 0 min 60 W/m 16,1 km/h (3 Bft) 100,00 %
15.11.2023 13:46 11,8 C 11,7 C 7,8 C 84 % 1015,1 hPa 0,0 l/m 0 min 0 min 107 W/m 12,9 km/h (3 Bft) 97,87 %
15.11.2023 13:48 11,8 C 12,2 C 7,8 C 84 % 1015,0 hPa 0,0 l/m 0 min 0 min 107 W/m 16,1 km/h (3 Bft) 97,87 %
15.11.2023 13:50 11,8 C 12,8 C 7,8 C 84 % 1015,0 hPa 0,0 l/m 0 min 0 min 136 W/m 9,7 km/h (2 Bft) 95,74 %
15.11.2023 13:52 11,8 C 12,8 C 8,3 C 84 % 1015,1 hPa 0,0 l/m 0 min 0 min 124 W/m 12,9 km/h (3 Bft) 95,74 %
15.11.2023 13:54 11,9 C 12,8 C 8,3 C 84 % 1015,2 hPa 0,0 l/m 0 min 0 min 132 W/m 12,9 km/h (3 Bft) 51,22 %
15.11.2023 13:56 11,9 C 12,8 C 8,3 C 84 % 1015,1 hPa 0,0 l/m 0 min 0 min 133 W/m 12,9 km/h (3 Bft) 95,65 %
15.11.2023 13:58 12,0 C 12,8 C 8,3 C 84 % 1015,2 hPa 0,0 l/m 2 min 0 min 146 W/m 16,1 km/h (3 Bft) 97,78 %
15.11.2023 14:00 12,0 C 12,2 C 8,3 C 83 % 1015,2 hPa 0,0 l/m 0 min 0 min 72 W/m 22,5 km/h (4 Bft) 97,87 %
15.11.2023 14:02 12,0 C 11,7 C 8,3 C 83 % 1015,1 hPa 0,0 l/m 0 min 0 min 52 W/m 16,1 km/h (3 Bft) 93,48 %
15.11.2023 14:04 12,0 C 12,8 C 8,3 C 83 % 1015,2 hPa 0,0 l/m 0 min 0 min 131 W/m 16,1 km/h (3 Bft) 96,00 %
15.11.2023 14:10 12,1 C 12,8 C 8,3 C 83 % 1015,1 hPa 0,0 l/m 5 min 0 min 233 W/m 19,3 km/h (3 Bft) 94,94 %
15.11.2023 14:12 12,0 C 12,2 C 8,3 C 83 % 1015,2 hPa 0,0 l/m 0 min 0 min 124 W/m 12,9 km/h (3 Bft) 95,74 %
15.11.2023 14:14 12,1 C 12,2 C 8,3 C 84 % 1015,1 hPa 0,0 l/m 2 min 0 min 161 W/m 19,3 km/h (3 Bft) 93,62 %
15.11.2023 14:16 12,1 C 12,2 C 8,3 C 83 % 1015,1 hPa 0,0 l/m 2 min 0 min 147 W/m 16,1 km/h (3 Bft) 97,87 %
15.11.2023 14:18 12,0 C 12,2 C 8,3 C 83 % 1015,2 hPa 0,0 l/m 2 min 0 min 230 W/m 16,1 km/h (3 Bft) 93,48 %
15.11.2023 14:20 12,0 C 12,2 C 8,3 C 83 % 1015,1 hPa 0,0 l/m 0 min 0 min 109 W/m 19,3 km/h (3 Bft) 95,74 %
15.11.2023 14:22 12,1 C 12,2 C 8,3 C 83 % 1015,1 hPa 0,0 l/m 2 min 0 min 164 W/m 16,1 km/h (3 Bft) 95,74 %
15.11.2023 14:24 12,1 C 12,2 C 8,3 C 83 % 1015,1 hPa 0,0 l/m 2 min 0 min 147 W/m 16,1 km/h (3 Bft) 95,74 %
15.11.2023 14:26 12,1 C 12,8 C 8,3 C 83 % 1015,1 hPa 0,0 l/m 2 min 0 min 218 W/m 16,1 km/h (3 Bft) 89,36 %
15.11.2023 14:28 12,1 C 12,8 C 8,3 C 83 % 1015,1 hPa 0,0 l/m 2 min 0 min 232 W/m 12,9 km/h (3 Bft) 96,30 %
15.11.2023 14:30 12,2 C 12,8 C 8,3 C 83 % 1015,1 hPa 0,0 l/m 2 min 0 min 201 W/m 22,5 km/h (4 Bft) 95,74 %
15.11.2023 14:32 12,2 C 12,8 C 8,3 C 83 % 1015,1 hPa 0,0 l/m 2 min 0 min 216 W/m 22,5 km/h (4 Bft) 95,74 %
15.11.2023 14:34 12,2 C 12,8 C 8,3 C 82 % 1015,1 hPa 0,0 l/m 2 min 0 min 224 W/m 29,0 km/h (5 Bft) 97,87 %
15.11.2023 14:36 12,3 C 12,8 C 8,3 C 82 % 1015,1 hPa 0,0 l/m 2 min 0 min 234 W/m 16,1 km/h (3 Bft) 97,87 %
15.11.2023 14:38 12,3 C 13,3 C 8,3 C 82 % 1015,1 hPa 0,0 l/m 2 min 0 min 252 W/m 12,9 km/h (3 Bft) 95,65 %
15.11.2023 14:40 12,3 C 12,8 C 8,3 C 82 % 1015,0 hPa 0,0 l/m 2 min 0 min 220 W/m 12,9 km/h (3 Bft) 93,62 %
15.11.2023 14:42 12,3 C 12,8 C 8,3 C 82 % 1015,1 hPa 0,0 l/m 0 min 0 min 113 W/m 16,1 km/h (3 Bft) 97,87 %
15.11.2023 14:44 12,3 C 12,2 C 8,3 C 82 % 1015,1 hPa 0,0 l/m 0 min 0 min 95 W/m 32,2 km/h (5 Bft) 95,74 %
15.11.2023 14:46 12,2 C 11,7 C 8,3 C 82 % 1015,1 hPa 0,0 l/m 0 min 0 min 71 W/m 12,9 km/h (3 Bft) 97,87 %
15.11.2023 14:48 12,2 C 11,7 C 8,3 C 82 % 1015,1 hPa 0,0 l/m 0 min 0 min 53 W/m 22,5 km/h (4 Bft) 93,62 %
15.11.2023 14:50 12,1 C 11,7 C 7,8 C 82 % 1015,2 hPa 0,0 l/m 0 min 0 min 79 W/m 6,4 km/h (2 Bft) 95,74 %
15.11.2023 14:52 12,1 C 11,7 C 7,8 C 82 % 1015,2 hPa 0,0 l/m 2 min 0 min 128 W/m 35,4 km/h (5 Bft) 97,83 %
15.11.2023 14:54 12,0 C 11,7 C 7,8 C 82 % 1015,1 hPa 0,0 l/m 0 min 0 min 50 W/m 19,3 km/h (3 Bft) 97,87 %
15.11.2023 14:56 11,9 C 11,7 C 7,8 C 82 % 1015,1 hPa 0,0 l/m 0 min 0 min 65 W/m 25,7 km/h (4 Bft) 95,74 %
15.11.2023 14:58 11,9 C 11,1 C 7,8 C 82 % 1015,1 hPa 0,0 l/m 0 min 0 min 61 W/m 19,3 km/h (3 Bft) 97,87 %
15.11.2023 15:00 11,8 C 11,1 C 7,8 C 82 % 1015,1 hPa 0,0 l/m 0 min 0 min 57 W/m 19,3 km/h (3 Bft) 91,49 %
15.11.2023 15:02 11,8 C 11,1 C 7,8 C 82 % 1015,1 hPa 0,0 l/m 0 min 0 min 90 W/m 12,9 km/h (3 Bft) 93,62 %
15.11.2023 15:04 11,8 C 11,1 C 7,8 C 82 % 1015,2 hPa 0,0 l/m 0 min 0 min 49 W/m 16,1 km/h (3 Bft) 97,78 %
15.11.2023 15:08 11,7 C 11,1 C 7,8 C 82 % 1015,3 hPa 0,0 l/m 0 min 0 min 58 W/m 19,3 km/h (3 Bft) 96,81 %
15.11.2023 15:09 11,7 C 11,1 C 7,8 C 82 % 1015,3 hPa 0,0 l/m 0 min 0 min 64 W/m 22,5 km/h (4 Bft) 100,00 %
15.11.2023 15:10 11,7 C 11,1 C 7,8 C 82 % 1015,3 hPa 0,0 l/m 0 min 0 min 64 W/m 22,5 km/h (4 Bft) 99,12 %
15.11.2023 15:14 11,6 C 11,1 C 7,8 C 82 % 1015,3 hPa 0,0 l/m 0 min 0 min 62 W/m 25,7 km/h (4 Bft) 97,50 %
15.11.2023 15:16 11,7 C 11,1 C 7,8 C 82 % 1015,3 hPa 0,0 l/m 0 min 0 min 53 W/m 12,9 km/h (3 Bft) 92,73 %
15.11.2023 15:18 11,7 C 11,1 C 7,8 C 82 % 1015,3 hPa 0,0 l/m 0 min 0 min 49 W/m 19,3 km/h (3 Bft) 97,87 %
15.11.2023 15:20 11,7 C 11,1 C 7,8 C 82 % 1015,3 hPa 0,0 l/m 0 min 0 min 55 W/m 19,3 km/h (3 Bft) 97,87 %
15.11.2023 15:22 11,7 C 11,1 C 7,8 C 82 % 1015,4 hPa 0,0 l/m 0 min 0 min 58 W/m 19,3 km/h (3 Bft) 97,87 %
15.11.2023 15:24 11,7 C 11,1 C 7,8 C 82 % 1015,4 hPa 0,0 l/m 0 min 0 min 47 W/m 16,1 km/h (3 Bft) 97,87 %
15.11.2023 15:26 11,8 C 11,1 C 7,8 C 82 % 1015,4 hPa 0,0 l/m 0 min 0 min 42 W/m 22,5 km/h (4 Bft) 97,83 %
15.11.2023 15:28 11,8 C 11,1 C 7,8 C 82 % 1015,4 hPa 0,0 l/m 0 min 0 min 36 W/m 32,2 km/h (5 Bft) 97,87 %
15.11.2023 15:30 11,8 C 11,1 C 7,8 C 82 % 1015,4 hPa 0,0 l/m 0 min 0 min 35 W/m 16,1 km/h (3 Bft) 95,74 %
15.11.2023 15:32 11,8 C 11,1 C 7,8 C 82 % 1015,4 hPa 0,0 l/m 0 min 0 min 33 W/m 12,9 km/h (3 Bft) 97,87 %
15.11.2023 15:34 11,8 C 11,1 C 7,8 C 82 % 1015,4 hPa 0,0 l/m 0 min 0 min 25 W/m 16,1 km/h (3 Bft) 97,87 %
15.11.2023 15:36 11,8 C 11,1 C 7,8 C 82 % 1015,5 hPa 0,0 l/m 0 min 0 min 18 W/m 6,4 km/h (2 Bft) 100,00 %
15.11.2023 15:38 11,8 C 11,1 C 7,8 C 83 % 1015,5 hPa 0,0 l/m 0 min 2 min 18 W/m 12,9 km/h (3 Bft) 100,00 %
15.11.2023 15:40 11,7 C 11,1 C 7,2 C 83 % 1015,5 hPa 0,0 l/m 0 min 2 min 18 W/m 19,3 km/h (3 Bft) 97,87 %
15.11.2023 15:42 11,7 C 10,6 C 6,7 C 84 % 1015,5 hPa 0,0 l/m 0 min 2 min 19 W/m 16,1 km/h (3 Bft) 97,87 %
15.11.2023 15:44 11,6 C 10,6 C 6,7 C 84 % 1015,6 hPa 0,0 l/m 0 min 2 min 16 W/m 25,7 km/h (4 Bft) 95,74 %
15.11.2023 15:46 11,5 C 10,6 C 6,1 C 84 % 1015,6 hPa 0,0 l/m 0 min 2 min 12 W/m 29,0 km/h (5 Bft) 100,00 %
15.11.2023 15:48 11,3 C 10,0 C 5,6 C 85 % 1015,8 hPa 0,4 l/m 0 min 2 min 8 W/m 22,5 km/h (4 Bft) 100,00 %
15.11.2023 15:50 11,0 C 9,4 C 5,6 C 85 % 1015,8 hPa 0,2 l/m 0 min 2 min 7 W/m 19,3 km/h (3 Bft) 100,00 %
15.11.2023 15:52 10,7 C 9,4 C 5,0 C 86 % 1015,7 hPa 0,0 l/m 0 min 2 min 7 W/m 22,5 km/h (4 Bft) 97,87 %
15.11.2023 15:54 10,6 C 9,4 C 5,0 C 86 % 1015,8 hPa 0,0 l/m 0 min 2 min 5 W/m 25,7 km/h (4 Bft) 100,00 %
15.11.2023 15:56 10,3 C 8,9 C 5,0 C 87 % 1015,8 hPa 0,2 l/m 0 min 2 min 6 W/m 22,5 km/h (4 Bft) 100,00 %
15.11.2023 15:58 10,2 C 8,9 C 5,0 C 87 % 1015,8 hPa 0,0 l/m 0 min 2 min 8 W/m 22,5 km/h (4 Bft) 100,00 %
15.11.2023 16:00 10,0 C 8,9 C 5,0 C 88 % 1015,8 hPa 0,0 l/m 0 min 2 min 7 W/m 22,5 km/h (4 Bft) 100,00 %
15.11.2023 16:02 9,8 C 8,9 C 5,0 C 89 % 1015,9 hPa 0,0 l/m 0 min 2 min 5 W/m 32,2 km/h (5 Bft) 100,00 %
15.11.2023 16:04 9,7 C 8,9 C 4,4 C 89 % 1016,0 hPa 0,0 l/m 0 min 2 min 6 W/m 19,3 km/h (3 Bft) 100,00 %
15.11.2023 16:08 9,6 C 8,3 C 5,0 C 90 % 1015,7 hPa 0,4 l/m 0 min 4 min 14 W/m 16,1 km/h (3 Bft) 100,00 %
15.11.2023 16:09 9,5 C 8,3 C 5,0 C 90 % 1015,8 hPa 0,0 l/m 0 min 1 min 21 W/m 3,2 km/h (1 Bft) 100,00 %
15.11.2023 16:10 9,5 C 8,3 C 5,0 C 91 % 1015,8 hPa 0,2 l/m 0 min 0 min 18 W/m 16,1 km/h (3 Bft) 100,00 %
15.11.2023 16:14 9,4 C 8,3 C 5,0 C 91 % 1015,9 hPa 0,0 l/m 0 min 0 min 18 W/m 0,0 km/h (0 Bft) 100,00 %
15.11.2023 16:16 9,4 C 8,3 C 5,0 C 91 % 1015,9 hPa 0,0 l/m 0 min 0 min 18 W/m 3,2 km/h (1 Bft) 97,87 %
15.11.2023 16:18 9,4 C 8,3 C 5,0 C 92 % 1015,9 hPa 0,0 l/m 0 min 0 min 18 W/m 12,9 km/h (3 Bft) 100,00 %
15.11.2023 16:20 9,4 C 8,3 C 5,0 C 92 % 1015,9 hPa 0,0 l/m 0 min 0 min 17 W/m 3,2 km/h (1 Bft) 97,87 %
15.11.2023 16:22 9,4 C 8,3 C 5,0 C 92 % 1015,9 hPa 0,0 l/m 0 min 0 min 13 W/m 6,4 km/h (2 Bft) 100,00 %
15.11.2023 16:24 9,4 C 8,3 C 5,0 C 92 % 1015,9 hPa 0,0 l/m 0 min 0 min 10 W/m 6,4 km/h (2 Bft) 100,00 %
15.11.2023 16:26 9,3 C 8,3 C 5,0 C 93 % 1015,9 hPa 0,0 l/m 0 min 0 min 8 W/m 12,9 km/h (3 Bft) 100,00 %
15.11.2023 16:28 9,3 C 8,3 C 5,0 C 93 % 1016,0 hPa 0,0 l/m 0 min 0 min 9 W/m 3,2 km/h (1 Bft) 100,00 %
15.11.2023 16:30 9,3 C 8,3 C 5,0 C 93 % 1016,0 hPa 0,0 l/m 0 min 0 min 8 W/m 3,2 km/h (1 Bft) 100,00 %
15.11.2023 16:32 9,3 C 8,3 C 5,0 C 93 % 1015,9 hPa 0,0 l/m 0 min 0 min 9 W/m 3,2 km/h (1 Bft) 100,00 %
15.11.2023 16:34 9,3 C 8,3 C 5,0 C 93 % 1016,0 hPa 0,0 l/m 0 min 0 min 7 W/m 3,2 km/h (1 Bft) 97,87 %
15.11.2023 16:36 9,3 C 8,3 C 5,0 C 93 % 1016,0 hPa 0,0 l/m 0 min 0 min 8 W/m 0,0 km/h (0 Bft) 97,87 %
15.11.2023 16:38 9,3 C 8,3 C 5,0 C 93 % 1016,0 hPa 0,0 l/m 0 min 0 min 10 W/m 3,2 km/h (1 Bft) 97,83 %
15.11.2023 16:40 9,3 C 8,3 C 5,0 C 93 % 1016,1 hPa 0,0 l/m 0 min 0 min 11 W/m 3,2 km/h (1 Bft) 95,74 %
15.11.2023 16:42 9,3 C 8,3 C 5,0 C 94 % 1016,1 hPa 0,0 l/m 0 min 0 min 10 W/m 3,2 km/h (1 Bft) 95,74 %
15.11.2023 16:44 9,3 C 8,3 C 5,0 C 94 % 1016,1 hPa 0,0 l/m 0 min 0 min 9 W/m 3,2 km/h (1 Bft) 100,00 %
15.11.2023 16:46 9,3 C 8,3 C 5,0 C 94 % 1016,1 hPa 0,0 l/m 0 min 0 min 7 W/m 3,2 km/h (1 Bft) 93,62 %
15.11.2023 16:48 9,3 C 8,3 C 5,0 C 94 % 1016,3 hPa 0,0 l/m 0 min 0 min 1 W/m 3,2 km/h (1 Bft) 95,74 %
15.11.2023 16:50 9,3 C 8,3 C 5,0 C 94 % 1016,3 hPa 0,0 l/m 0 min 0 min 0 W/m 3,2 km/h (1 Bft) 97,87 %
15.11.2023 16:52 9,3 C 8,3 C 5,0 C 94 % 1016,3 hPa 0,0 l/m 0 min 0 min 0 W/m 3,2 km/h (1 Bft) 95,65 %
15.11.2023 16:54 9,3 C 8,3 C 5,0 C 94 % 1016,4 hPa 0,0 l/m 0 min 0 min 0 W/m 3,2 km/h (1 Bft) 91,49 %
15.11.2023 16:56 9,3 C 8,3 C 5,0 C 94 % 1016,4 hPa 0,0 l/m 0 min 0 min 0 W/m 3,2 km/h (1 Bft) 94,34 %
15.11.2023 16:58 9,2 C 8,3 C 5,0 C 94 % 1016,3 hPa 0,0 l/m 0 min 0 min 0 W/m 6,4 km/h (2 Bft) 93,62 %
15.11.2023 17:00 9,2 C 8,3 C 5,0 C 94 % 1016,3 hPa 0,0 l/m 0 min 0 min 0 W/m 3,2 km/h (1 Bft) 91,30 %
15.11.2023 17:02 9,2 C 7,8 C 5,0 C 94 % 1016,3 hPa 0,0 l/m 0 min 0 min 0 W/m 0,0 km/h (0 Bft) 93,62 %
15.11.2023 17:04 9,2 C 7,8 C 5,0 C 94 % 1016,3 hPa 0,0 l/m 0 min 0 min 0 W/m 3,2 km/h (1 Bft) 91,49 %
15.11.2023 17:08 9,1 C 7,8 C 4,4 C 94 % 1016,3 hPa 0,0 l/m 0 min 0 min 0 W/m 3,2 km/h (1 Bft) 91,75 %
15.11.2023 17:09 9,1 C 7,8 C 4,4 C 94 % 1016,2 hPa 0,0 l/m 0 min 0 min 0 W/m 0,0 km/h (0 Bft) 91,30 %
15.11.2023 17:10 9,1 C 7,8 C 4,4 C 94 % 1016,2 hPa 0,0 l/m 0 min 0 min 0 W/m 3,2 km/h (1 Bft) 95,61 %
15.11.2023 17:14 9,0 C 7,8 C 4,4 C 94 % 1016,3 hPa 0,0 l/m 0 min 0 min 0 W/m 6,4 km/h (2 Bft) 93,62 %
15.11.2023 17:16 8,9 C 7,8 C 4,4 C 94 % 1016,3 hPa 0,0 l/m 0 min 0 min 0 W/m 12,9 km/h (3 Bft) 93,62 %
15.11.2023 17:18 8,9 C 7,8 C 4,4 C 94 % 1016,3 hPa 0,0 l/m 0 min 0 min 0 W/m 3,2 km/h (1 Bft) 91,49 %
15.11.2023 17:20 8,9 C 7,8 C 4,4 C 94 % 1016,3 hPa 0,0 l/m 0 min 0 min 0 W/m 0,0 km/h (0 Bft) 91,49 %
15.11.2023 17:22 8,9 C 7,8 C 4,4 C 94 % 1016,3 hPa 0,0 l/m 0 min 0 min 0 W/m 0,0 km/h (0 Bft) 93,62 %
15.11.2023 17:24 8,8 C 7,8 C 4,4 C 94 % 1016,3 hPa 0,0 l/m 0 min 0 min 0 W/m 12,9 km/h (3 Bft) 95,65 %
15.11.2023 17:26 8,8 C 7,8 C 4,4 C 94 % 1016,3 hPa 0,0 l/m 0 min 0 min 0 W/m 9,7 km/h (2 Bft) 95,74 %
15.11.2023 17:28 8,8 C 7,8 C 4,4 C 94 % 1016,4 hPa 0,0 l/m 0 min 0 min 0 W/m 0,0 km/h (0 Bft) 95,74 %
15.11.2023 17:30 8,8 C 7,8 C 4,4 C 94 % 1016,4 hPa 0,0 l/m 0 min 0 min 0 W/m 3,2 km/h (1 Bft) 95,74 %
15.11.2023 17:32 8,8 C 7,8 C 4,4 C 94 % 1016,4 hPa 0,0 l/m 0 min 0 min 0 W/m 0,0 km/h (0 Bft) 100,00 %
15.11.2023 17:34 8,8 C 7,8 C 4,4 C 94 % 1016,5 hPa 0,0 l/m 0 min 0 min 0 W/m 0,0 km/h (0 Bft) 97,87 %
15.11.2023 17:36 8,8 C 7,8 C 4,4 C 94 % 1016,5 hPa 0,0 l/m 0 min 0 min 0 W/m 0,0 km/h (0 Bft) 100,00 %
15.11.2023 17:38 8,7 C 7,8 C 4,4 C 95 % 1016,5 hPa 0,0 l/m 0 min 0 min 0 W/m 0,0 km/h (0 Bft) 97,96 %
15.11.2023 17:40 8,7 C 7,8 C 4,4 C 95 % 1016,6 hPa 0,0 l/m 0 min 0 min 0 W/m 0,0 km/h (0 Bft) 100,00 %
15.11.2023 17:42 8,7 C 7,8 C 4,4 C 95 % 1016,6 hPa 0,0 l/m 0 min 0 min 0 W/m 0,0 km/h (0 Bft) 97,92 %
15.11.2023 17:44 8,7 C 7,2 C 4,4 C 95 % 1016,6 hPa 0,0 l/m 0 min 0 min 0 W/m 0,0 km/h (0 Bft) 100,00 %
15.11.2023 17:46 8,6 C 7,2 C 4,4 C 95 % 1016,6 hPa 0,0 l/m 0 min 0 min 0 W/m 0,0 km/h (0 Bft) 100,00 %
15.11.2023 17:48 8,6 C 7,2 C 4,4 C 95 % 1016,6 hPa 0,0 l/m 0 min 0 min 0 W/m 0,0 km/h (0 Bft) 97,87 %
15.11.2023 17:50 8,6 C 7,2 C 4,4 C 94 % 1016,6 hPa 0,0 l/m 0 min 0 min 0 W/m 0,0 km/h (0 Bft) 97,87 %
15.11.2023 17:52 8,6 C 7,2 C 3,9 C 94 % 1016,7 hPa 0,0 l/m 0 min 0 min 0 W/m 0,0 km/h (0 Bft) 97,83 %
15.11.2023 17:54 8,5 C 7,2 C 3,9 C 94 % 1016,7 hPa 0,0 l/m 0 min 0 min 0 W/m 0,0 km/h (0 Bft) 100,00 %
15.11.2023 17:56 8,5 C 7,2 C 3,9 C 94 % 1016,7 hPa 0,0 l/m 0 min 0 min 0 W/m 0,0 km/h (0 Bft) 100,00 %
15.11.2023 17:58 8,4 C 7,2 C 3,9 C 94 % 1016,7 hPa 0,0 l/m 0 min 0 min 0 W/m 0,0 km/h (0 Bft) 100,00 %
15.11.2023 18:00 8,4 C 7,2 C 3,9 C 94 % 1016,7 hPa 0,0 l/m 0 min 0 min 0 W/m 0,0 km/h (0 Bft) 100,00 %
15.11.2023 18:02 8,4 C 7,2 C 3,9 C 94 % 1016,7 hPa 0,0 l/m 0 min 0 min 0 W/m 3,2 km/h (1 Bft) 97,87 %
15.11.2023 18:04 8,3 C 7,2 C 3,9 C 94 % 1016,8 hPa 0,0 l/m 0 min 0 min 0 W/m 0,0 km/h (0 Bft) 100,00 %
15.11.2023 18:10 8,3 C 7,2 C 3,9 C 95 % 1016,8 hPa 0,0 l/m 0 min 0 min 0 W/m 3,2 km/h (1 Bft) 99,25 %
15.11.2023 18:12 8,3 C 7,2 C 3,9 C 95 % 1016,8 hPa 0,0 l/m 0 min 0 min 0 W/m 3,2 km/h (1 Bft) 97,87 %
15.11.2023 18:16 8,2 C 7,2 C 3,9 C 94 % 1016,9 hPa 0,0 l/m 0 min 0 min 0 W/m 6,4 km/h (2 Bft) 97,85 %
15.11.2023 18:18 8,2 C 7,2 C 3,9 C 95 % 1016,9 hPa 0,0 l/m 0 min 0 min 0 W/m 0,0 km/h (0 Bft) 97,87 %
15.11.2023 18:20 8,2 C 7,2 C 3,9 C 95 % 1017,0 hPa 0,0 l/m 0 min 0 min 0 W/m 3,2 km/h (1 Bft) 100,00 %
15.11.2023 18:22 8,2 C 7,2 C 3,9 C 95 % 1017,0 hPa 0,0 l/m 0 min 0 min 0 W/m 3,2 km/h (1 Bft) 100,00 %
15.11.2023 18:24 8,2 C 7,2 C 3,9 C 95 % 1017,0 hPa 0,0 l/m 0 min 0 min 0 W/m 0,0 km/h (0 Bft) 100,00 %
15.11.2023 18:26 8,2 C 7,2 C 4,4 C 95 % 1017,0 hPa 0,0 l/m 0 min 0 min 0 W/m 3,2 km/h (1 Bft) 100,00 %
15.11.2023 18:28 8,2 C 7,8 C 4,4 C 95 % 1017,0 hPa 0,0 l/m 0 min 0 min 0 W/m 3,2 km/h (1 Bft) 100,00 %
15.11.2023 18:30 8,2 C 7,8 C 4,4 C 95 % 1017,0 hPa 0,0 l/m 0 min 0 min 0 W/m 3,2 km/h (1 Bft) 97,87 %
15.11.2023 18:32 8,2 C 7,8 C 4,4 C 95 % 1017,0 hPa 0,0 l/m 0 min 0 min 0 W/m 3,2 km/h (1 Bft) 100,00 %
15.11.2023 18:34 8,2 C 7,2 C 4,4 C 95 % 1017,1 hPa 0,0 l/m 0 min 0 min 0 W/m 3,2 km/h (1 Bft) 100,00 %
15.11.2023 18:36 8,2 C 7,2 C 4,4 C 95 % 1017,1 hPa 0,0 l/m 0 min 0 min 0 W/m 6,4 km/h (2 Bft) 100,00 %
15.11.2023 18:38 8,2 C 7,2 C 4,4 C 95 % 1017,0 hPa 0,0 l/m 0 min 0 min 0 W/m 3,2 km/h (1 Bft) 98,11 %
15.11.2023 18:40 8,2 C 7,2 C 3,9 C 95 % 1017,0 hPa 0,0 l/m 0 min 0 min 0 W/m 3,2 km/h (1 Bft) 97,87 %
15.11.2023 18:42 8,2 C 7,2 C 3,9 C 95 % 1017,0 hPa 0,0 l/m 0 min 0 min 0 W/m 3,2 km/h (1 Bft) 97,87 %
15.11.2023 18:44 8,2 C 7,2 C 3,9 C 95 % 1017,0 hPa 0,0 l/m 0 min 0 min 0 W/m 3,2 km/h (1 Bft) 95,74 %
15.11.2023 18:46 8,2 C 7,2 C 3,9 C 95 % 1017,0 hPa 0,0 l/m 0 min 0 min 0 W/m 3,2 km/h (1 Bft) 97,83 %
15.11.2023 18:48 8,1 C 7,2 C 3,9 C 95 % 1016,9 hPa 0,0 l/m 0 min 0 min 0 W/m 6,4 km/h (2 Bft) 97,87 %
15.11.2023 18:50 8,1 C 7,2 C 3,9 C 95 % 1016,9 hPa 0,0 l/m 0 min 0 min 0 W/m 9,7 km/h (2 Bft) 97,87 %
15.11.2023 18:52 8,1 C 7,2 C 3,9 C 95 % 1016,9 hPa 0,0 l/m 0 min 0 min 0 W/m 3,2 km/h (1 Bft) 95,74 %
15.11.2023 18:54 8,1 C 7,2 C 3,9 C 95 % 1016,9 hPa 0,0 l/m 0 min 0 min 0 W/m 6,4 km/h (2 Bft) 97,87 %
15.11.2023 18:56 8,1 C 7,2 C 3,9 C 95 % 1016,9 hPa 0,0 l/m 0 min 0 min 0 W/m 6,4 km/h (2 Bft) 97,87 %
15.11.2023 18:58 8,1 C 7,2 C 3,9 C 95 % 1016,9 hPa 0,0 l/m 0 min 0 min 0 W/m 3,2 km/h (1 Bft) 97,87 %
15.11.2023 19:00 8,1 C 7,2 C 3,9 C 95 % 1016,9 hPa 0,0 l/m 0 min 0 min 0 W/m 0,0 km/h (0 Bft) 97,83 %
15.11.2023 19:02 8,1 C 7,2 C 3,9 C 95 % 1017,0 hPa 0,0 l/m 0 min 0 min 0 W/m 6,4 km/h (2 Bft) 97,87 %
15.11.2023 19:04 8,1 C 7,2 C 3,9 C 95 % 1016,9 hPa 0,0 l/m 0 min 0 min 0 W/m 6,4 km/h (2 Bft) 97,92 %
15.11.2023 19:08 8,1 C 7,8 C 3,9 C 95 % 1017,0 hPa 0,0 l/m 0 min 0 min 0 W/m 6,4 km/h (2 Bft) 96,94 %
15.11.2023 19:09 8,2 C 7,2 C 3,9 C 95 % 1017,0 hPa 0,0 l/m 0 min 0 min 0 W/m 0,0 km/h (0 Bft) 95,65 %
15.11.2023 19:10 8,2 C 7,8 C 3,9 C 95 % 1017,0 hPa 0,0 l/m 0 min 0 min 0 W/m 6,4 km/h (2 Bft) 100,00 %
15.11.2023 19:14 8,1 C 7,8 C 3,9 C 95 % 1017,0 hPa 0,0 l/m 0 min 0 min 0 W/m 6,4 km/h (2 Bft) 97,87 %
15.11.2023 19:16 8,2 C 7,8 C 3,9 C 95 % 1017,0 hPa 0,0 l/m 0 min 0 min 0 W/m 6,4 km/h (2 Bft) 93,62 %
15.11.2023 19:18 8,2 C 7,8 C 3,9 C 95 % 1017,1 hPa 0,0 l/m 0 min 0 min 0 W/m 12,9 km/h (3 Bft) 97,83 %
15.11.2023 19:20 8,2 C 7,8 C 3,9 C 95 % 1017,1 hPa 0,0 l/m 0 min 0 min 0 W/m 12,9 km/h (3 Bft) 97,87 %
15.11.2023 19:22 8,2 C 7,8 C 3,9 C 94 % 1017,1 hPa 0,0 l/m 0 min 0 min 0 W/m 9,7 km/h (2 Bft) 97,87 %
15.11.2023 19:24 8,2 C 7,8 C 4,4 C 94 % 1017,1 hPa 0,0 l/m 0 min 0 min 0 W/m 12,9 km/h (3 Bft) 97,87 %
15.11.2023 19:26 8,2 C 7,8 C 3,9 C 94 % 1017,0 hPa 0,0 l/m 0 min 0 min 0 W/m 9,7 km/h (2 Bft) 97,87 %
15.11.2023 19:28 8,2 C 7,8 C 3,9 C 94 % 1017,1 hPa 0,0 l/m 0 min 0 min 0 W/m 6,4 km/h (2 Bft) 97,87 %
15.11.2023 19:30 8,2 C 7,8 C 3,9 C 94 % 1017,0 hPa 0,0 l/m 0 min 0 min 0 W/m 9,7 km/h (2 Bft) 97,87 %
15.11.2023 19:32 8,2 C 7,8 C 3,9 C 94 % 1017,1 hPa 0,0 l/m 0 min 0 min 0 W/m 9,7 km/h (2 Bft) 95,65 %
15.11.2023 19:34 8,2 C 7,8 C 3,9 C 94 % 1017,1 hPa 0,0 l/m 0 min 0 min 0 W/m 6,4 km/h (2 Bft) 97,87 %
15.11.2023 19:36 8,2 C 7,8 C 3,9 C 94 % 1017,1 hPa 0,0 l/m 0 min 0 min 0 W/m 6,4 km/h (2 Bft) 97,87 %
15.11.2023 19:38 8,2 C 7,8 C 3,9 C 94 % 1017,1 hPa 0,0 l/m 0 min 0 min 0 W/m 6,4 km/h (2 Bft) 97,87 %
15.11.2023 19:40 8,2 C 7,8 C 3,9 C 94 % 1017,1 hPa 0,0 l/m 0 min 0 min 0 W/m 16,1 km/h (3 Bft) 97,87 %
15.11.2023 19:42 8,2 C 7,8 C 3,9 C 94 % 1017,1 hPa 0,0 l/m 0 min 0 min 0 W/m 9,7 km/h (2 Bft) 100,00 %
15.11.2023 19:44 8,2 C 7,8 C 3,9 C 94 % 1017,0 hPa 0,0 l/m 0 min 0 min 0 W/m 6,4 km/h (2 Bft) 100,00 %
15.11.2023 19:46 8,2 C 7,8 C 3,9 C 93 % 1017,1 hPa 0,0 l/m 0 min 0 min 0 W/m 9,7 km/h (2 Bft) 100,00 %
15.11.2023 19:48 8,2 C 7,8 C 3,9 C 93 % 1017,0 hPa 0,0 l/m 0 min 0 min 0 W/m 6,4 km/h (2 Bft) 97,87 %
15.11.2023 19:50 8,2 C 7,8 C 3,9 C 93 % 1017,0 hPa 0,0 l/m 0 min 0 min 0 W/m 3,2 km/h (1 Bft) 100,00 %
15.11.2023 19:52 8,2 C 7,8 C 3,9 C 93 % 1017,1 hPa 0,0 l/m 0 min 0 min 0 W/m 3,2 km/h (1 Bft) 100,00 %
15.11.2023 19:54 8,2 C 7,8 C 3,9 C 93 % 1017,0 hPa 0,0 l/m 0 min 0 min 0 W/m 6,4 km/h (2 Bft) 100,00 %
15.11.2023 19:56 8,2 C 7,2 C 3,9 C 93 % 1017,1 hPa 0,0 l/m 0 min 0 min 0 W/m 6,4 km/h (2 Bft) 97,87 %
15.11.2023 19:58 8,2 C 7,2 C 3,9 C 93 % 1017,0 hPa 0,0 l/m 0 min 0 min 0 W/m 6,4 km/h (2 Bft) 100,00 %
15.11.2023 20:00 8,2 C 7,2 C 3,9 C 93 % 1017,0 hPa 0,0 l/m 0 min 0 min 0 W/m 3,2 km/h (1 Bft) 95,74 %
15.11.2023 20:02 8,2 C 7,2 C 3,9 C 93 % 1017,1 hPa 0,0 l/m 0 min 0 min 0 W/m 6,4 km/h (2 Bft) 93,48 %
15.11.2023 20:04 8,2 C 7,2 C 3,9 C 93 % 1017,1 hPa 0,0 l/m 0 min 0 min 0 W/m 6,4 km/h (2 Bft) 97,73 %
15.11.2023 20:08 8,2 C 7,2 C 3,9 C 93 % 1017,1 hPa 0,0 l/m 0 min 0 min 0 W/m 3,2 km/h (1 Bft) 97,14 %
15.11.2023 20:09 8,2 C 7,2 C 3,9 C 93 % 1017,1 hPa 0,0 l/m 0 min 0 min 0 W/m 6,4 km/h (2 Bft) 100,00 %
15.11.2023 20:10 8,2 C 7,2 C 3,9 C 93 % 1017,1 hPa 0,0 l/m 0 min 0 min 0 W/m 9,7 km/h (2 Bft) 100,00 %
15.11.2023 20:14 8,1 C 7,2 C 3,9 C 93 % 1017,0 hPa 0,0 l/m 0 min 0 min 0 W/m 3,2 km/h (1 Bft) 96,55 %
15.11.2023 20:16 8,1 C 7,2 C 3,9 C 93 % 1017,0 hPa 0,0 l/m 0 min 0 min 0 W/m 3,2 km/h (1 Bft) 97,87 %
15.11.2023 20:18 8,1 C 7,2 C 3,9 C 93 % 1017,0 hPa 0,0 l/m 0 min 0 min 0 W/m 12,9 km/h (3 Bft) 95,74 %
15.11.2023 20:20 8,1 C 7,2 C 3,9 C 93 % 1016,9 hPa 0,0 l/m 0 min 0 min 0 W/m 12,9 km/h (3 Bft) 95,74 %
15.11.2023 20:22 8,1 C 7,2 C 3,9 C 93 % 1016,9 hPa 0,0 l/m 0 min 0 min 0 W/m 6,4 km/h (2 Bft) 93,62 %
15.11.2023 20:24 8,1 C 7,2 C 3,9 C 93 % 1016,9 hPa 0,0 l/m 0 min 0 min 0 W/m 6,4 km/h (2 Bft) 95,65 %
15.11.2023 20:26 8,1 C 7,2 C 3,9 C 93 % 1016,9 hPa 0,0 l/m 0 min 0 min 0 W/m 9,7 km/h (2 Bft) 93,62 %
15.11.2023 20:28 8,1 C 7,2 C 3,9 C 93 % 1016,9 hPa 0,0 l/m 0 min 0 min 0 W/m 12,9 km/h (3 Bft) 95,74 %
15.11.2023 20:30 8,1 C 7,2 C 3,9 C 93 % 1017,0 hPa 0,0 l/m 0 min 0 min 0 W/m 6,4 km/h (2 Bft) 95,74 %
15.11.2023 20:32 8,1 C 7,2 C 3,9 C 93 % 1016,9 hPa 0,0 l/m 0 min 0 min 0 W/m 6,4 km/h (2 Bft) 93,62 %
15.11.2023 20:34 8,0 C 7,2 C 3,9 C 93 % 1016,9 hPa 0,0 l/m 0 min 0 min 0 W/m 6,4 km/h (2 Bft) 93,62 %
15.11.2023 20:36 8,0 C 7,2 C 3,9 C 93 % 1016,9 hPa 0,0 l/m 0 min 0 min 0 W/m 6,4 km/h (2 Bft) 97,87 %
15.11.2023 20:38 8,0 C 7,2 C 3,9 C 93 % 1016,9 hPa 0,0 l/m 0 min 0 min 0 W/m 6,4 km/h (2 Bft) 93,48 %
15.11.2023 20:40 7,9 C 7,2 C 3,9 C 93 % 1016,9 hPa 0,0 l/m 0 min 0 min 0 W/m 3,2 km/h (1 Bft) 94,44 %
15.11.2023 20:42 7,9 C 7,2 C 3,9 C 93 % 1017,0 hPa 0,0 l/m 0 min 0 min 0 W/m 6,4 km/h (2 Bft) 94,83 %
15.11.2023 20:44 7,9 C 7,2 C 3,9 C 93 % 1016,9 hPa 0,0 l/m 0 min 0 min 0 W/m 6,4 km/h (2 Bft) 95,74 %
15.11.2023 20:46 7,9 C 7,2 C 3,9 C 92 % 1017,0 hPa 0,0 l/m 0 min 0 min 0 W/m 9,7 km/h (2 Bft) 97,14 %
15.11.2023 20:48 7,9 C 7,2 C 3,9 C 92 % 1017,0 hPa 0,0 l/m 0 min 0 min 0 W/m 6,4 km/h (2 Bft) 96,61 %
15.11.2023 20:50 7,9 C 7,2 C 3,9 C 92 % 1017,0 hPa 0,0 l/m 0 min 0 min 0 W/m 3,2 km/h (1 Bft) 97,14 %
15.11.2023 20:52 7,9 C 7,2 C 3,9 C 92 % 1017,0 hPa 0,0 l/m 0 min 0 min 0 W/m 9,7 km/h (2 Bft) 98,21 %
15.11.2023 20:54 7,9 C 7,2 C 3,9 C 92 % 1017,0 hPa 0,0 l/m 0 min 0 min 0 W/m 6,4 km/h (2 Bft) 97,92 %
15.11.2023 20:56 7,9 C 7,2 C 3,9 C 92 % 1017,0 hPa 0,0 l/m 0 min 0 min 0 W/m 12,9 km/h (3 Bft) 97,87 %
15.11.2023 20:58 7,9 C 7,2 C 3,9 C 92 % 1017,0 hPa 0,0 l/m 0 min 0 min 0 W/m 6,4 km/h (2 Bft) 97,67 %
15.11.2023 21:00 7,9 C 7,2 C 3,9 C 92 % 1017,0 hPa 0,0 l/m 0 min 0 min 0 W/m 9,7 km/h (2 Bft) 97,87 %
15.11.2023 21:02 7,9 C 7,2 C 3,9 C 92 % 1017,0 hPa 0,0 l/m 0 min 0 min 0 W/m 12,9 km/h (3 Bft) 93,62 %
15.11.2023 21:04 7,9 C 7,2 C 3,9 C 92 % 1017,0 hPa 0,0 l/m 0 min 0 min 0 W/m 16,1 km/h (3 Bft) 96,08 %
15.11.2023 21:08 7,9 C 7,2 C 3,9 C 92 % 1017,0 hPa 0,0 l/m 0 min 0 min 0 W/m 6,4 km/h (2 Bft) 97,62 %
15.11.2023 21:09 7,9 C 7,2 C 3,9 C 92 % 1017,0 hPa 0,0 l/m 0 min 0 min 0 W/m 3,2 km/h (1 Bft) 100,00 %
15.11.2023 21:10 7,9 C 7,2 C 3,9 C 92 % 1017,0 hPa 0,0 l/m 0 min 0 min 0 W/m 6,4 km/h (2 Bft) 100,00 %
15.11.2023 21:14 7,9 C 7,2 C 3,9 C 92 % 1017,0 hPa 0,0 l/m 0 min 0 min 0 W/m 6,4 km/h (2 Bft) 95,65 %
15.11.2023 21:16 7,9 C 7,2 C 3,9 C 92 % 1017,0 hPa 0,0 l/m 0 min 0 min 0 W/m 12,9 km/h (3 Bft) 95,74 %
15.11.2023 21:18 7,9 C 7,2 C 3,9 C 92 % 1017,0 hPa 0,0 l/m 0 min 0 min 0 W/m 12,9 km/h (3 Bft) 97,87 %
15.11.2023 21:20 7,9 C 7,2 C 3,9 C 92 % 1017,0 hPa 0,0 l/m 0 min 0 min 0 W/m 12,9 km/h (3 Bft) 97,87 %
15.11.2023 21:22 7,9 C 7,2 C 3,9 C 92 % 1017,0 hPa 0,0 l/m 0 min 0 min 0 W/m 12,9 km/h (3 Bft) 93,62 %
15.11.2023 21:24 8,0 C 7,2 C 3,9 C 92 % 1017,0 hPa 0,0 l/m 0 min 0 min 0 W/m 9,7 km/h (2 Bft) 97,87 %
15.11.2023 21:26 8,0 C 7,2 C 3,9 C 92 % 1017,0 hPa 0,0 l/m 0 min 0 min 0 W/m 12,9 km/h (3 Bft) 97,87 %
15.11.2023 21:28 8,0 C 7,2 C 3,9 C 92 % 1017,0 hPa 0,0 l/m 0 min 0 min 0 W/m 12,9 km/h (3 Bft) 97,83 %
15.11.2023 21:30 8,0 C 7,2 C 3,9 C 92 % 1017,0 hPa 0,0 l/m 0 min 0 min 0 W/m 16,1 km/h (3 Bft) 97,87 %
15.11.2023 21:32 7,9 C 7,2 C 3,9 C 92 % 1017,0 hPa 0,0 l/m 0 min 0 min 0 W/m 12,9 km/h (3 Bft) 97,87 %
15.11.2023 21:34 7,9 C 7,2 C 3,9 C 92 % 1017,0 hPa 0,0 l/m 0 min 0 min 0 W/m 6,4 km/h (2 Bft) 97,87 %
15.11.2023 21:36 8,0 C 7,2 C 3,9 C 92 % 1017,0 hPa 0,0 l/m 0 min 0 min 0 W/m 12,9 km/h (3 Bft) 97,87 %
15.11.2023 21:38 8,0 C 7,2 C 3,9 C 92 % 1017,0 hPa 0,0 l/m 0 min 0 min 0 W/m 16,1 km/h (3 Bft) 95,74 %
15.11.2023 21:40 8,0 C 7,2 C 3,9 C 92 % 1017,0 hPa 0,0 l/m 0 min 0 min 0 W/m 6,4 km/h (2 Bft) 97,87 %
15.11.2023 21:42 8,0 C 7,2 C 3,9 C 92 % 1017,0 hPa 0,0 l/m 0 min 0 min 0 W/m 19,3 km/h (3 Bft) 97,83 %
15.11.2023 21:44 8,0 C 7,2 C 3,9 C 92 % 1017,0 hPa 0,0 l/m 0 min 0 min 0 W/m 6,4 km/h (2 Bft) 97,87 %
15.11.2023 21:46 8,0 C 7,2 C 3,9 C 92 % 1017,0 hPa 0,0 l/m 0 min 0 min 0 W/m 6,4 km/h (2 Bft) 97,87 %
15.11.2023 21:48 8,0 C 7,2 C 3,9 C 92 % 1016,9 hPa 0,0 l/m 0 min 0 min 0 W/m 12,9 km/h (3 Bft) 95,74 %
15.11.2023 21:50 8,0 C 7,2 C 3,9 C 92 % 1016,9 hPa 0,0 l/m 0 min 0 min 0 W/m 9,7 km/h (2 Bft) 97,87 %
15.11.2023 21:52 8,0 C 7,2 C 3,9 C 92 % 1016,9 hPa 0,0 l/m 0 min 0 min 0 W/m 6,4 km/h (2 Bft) 100,00 %
15.11.2023 21:54 8,0 C 7,2 C 3,9 C 92 % 1016,9 hPa 0,0 l/m 0 min 0 min 0 W/m 12,9 km/h (3 Bft) 97,87 %
15.11.2023 21:56 8,0 C 7,2 C 3,9 C 92 % 1016,8 hPa 0,0 l/m 0 min 0 min 0 W/m 19,3 km/h (3 Bft) 97,87 %
15.11.2023 21:58 8,0 C 7,2 C 4,4 C 92 % 1016,8 hPa 0,0 l/m 0 min 0 min 0 W/m 16,1 km/h (3 Bft) 95,65 %
15.11.2023 22:00 8,0 C 7,2 C 4,4 C 92 % 1016,8 hPa 0,0 l/m 0 min 0 min 0 W/m 12,9 km/h (3 Bft) 95,74 %
15.11.2023 22:02 8,0 C 7,2 C 4,4 C 92 % 1016,8 hPa 0,0 l/m 0 min 0 min 0 W/m 9,7 km/h (2 Bft) 97,87 %
15.11.2023 22:04 7,9 C 7,2 C 4,4 C 92 % 1016,8 hPa 0,0 l/m 0 min 0 min 0 W/m 16,1 km/h (3 Bft) 97,96 %
15.11.2023 22:08 8,0 C 7,2 C 4,4 C 92 % 1016,7 hPa 0,0 l/m 0 min 0 min 0 W/m 19,3 km/h (3 Bft) 97,92 %
15.11.2023 22:09 7,9 C 7,2 C 4,4 C 92 % 1016,7 hPa 0,0 l/m 0 min 0 min 0 W/m 12,9 km/h (3 Bft) 95,65 %
15.11.2023 22:10 8,0 C 7,2 C 4,4 C 92 % 1016,7 hPa 0,0 l/m 0 min 0 min 0 W/m 19,3 km/h (3 Bft) 100,00 %
15.11.2023 22:14 7,9 C 7,2 C 4,4 C 92 % 1016,7 hPa 0,0 l/m 0 min 0 min 0 W/m 6,4 km/h (2 Bft) 97,87 %
15.11.2023 22:16 7,9 C 7,2 C 4,4 C 92 % 1016,7 hPa 0,0 l/m 0 min 0 min 0 W/m 9,7 km/h (2 Bft) 97,87 %
15.11.2023 22:18 7,9 C 7,2 C 4,4 C 92 % 1016,7 hPa 0,0 l/m 0 min 0 min 0 W/m 16,1 km/h (3 Bft) 95,74 %
15.11.2023 22:20 7,9 C 7,2 C 4,4 C 92 % 1016,7 hPa 0,0 l/m 0 min 0 min 0 W/m 9,7 km/h (2 Bft) 97,87 %
15.11.2023 22:22 7,9 C 7,2 C 4,4 C 92 % 1016,8 hPa 0,0 l/m 0 min 0 min 0 W/m 22,5 km/h (4 Bft) 97,83 %
15.11.2023 22:24 7,9 C 7,2 C 4,4 C 92 % 1016,8 hPa 0,0 l/m 0 min 0 min 0 W/m 12,9 km/h (3 Bft) 97,87 %
15.11.2023 22:26 7,9 C 7,2 C 4,4 C 92 % 1016,8 hPa 0,0 l/m 0 min 0 min 0 W/m 12,9 km/h (3 Bft) 97,87 %
15.11.2023 22:28 7,8 C 7,2 C 4,4 C 92 % 1016,8 hPa 0,0 l/m 0 min 0 min 0 W/m 9,7 km/h (2 Bft) 100,00 %
15.11.2023 22:30 7,8 C 7,2 C 4,4 C 92 % 1016,8 hPa 0,0 l/m 0 min 0 min 0 W/m 16,1 km/h (3 Bft) 100,00 %
15.11.2023 22:32 7,8 C 7,2 C 4,4 C 92 % 1016,8 hPa 0,0 l/m 0 min 0 min 0 W/m 16,1 km/h (3 Bft) 100,00 %
15.11.2023 22:34 7,8 C 7,2 C 4,4 C 92 % 1016,7 hPa 0,0 l/m 0 min 0 min 0 W/m 12,9 km/h (3 Bft) 100,00 %
15.11.2023 22:36 7,8 C 7,2 C 4,4 C 92 % 1016,8 hPa 0,0 l/m 0 min 0 min 0 W/m 12,9 km/h (3 Bft) 96,30 %
15.11.2023 22:38 7,8 C 7,2 C 4,4 C 92 % 1016,8 hPa 0,0 l/m 0 min 0 min 0 W/m 6,4 km/h (2 Bft) 100,00 %
15.11.2023 22:40 7,8 C 7,2 C 4,4 C 92 % 1016,8 hPa 0,0 l/m 0 min 0 min 0 W/m 16,1 km/h (3 Bft) 100,00 %
15.11.2023 22:42 7,8 C 7,2 C 4,4 C 92 % 1016,8 hPa 0,0 l/m 0 min 0 min 0 W/m 6,4 km/h (2 Bft) 97,87 %
15.11.2023 22:44 7,7 C 7,2 C 4,4 C 92 % 1016,8 hPa 0,0 l/m 0 min 0 min 0 W/m 9,7 km/h (2 Bft) 100,00 %
15.11.2023 22:46 7,7 C 7,2 C 4,4 C 92 % 1016,8 hPa 0,0 l/m 0 min 0 min 0 W/m 16,1 km/h (3 Bft) 97,87 %
15.11.2023 22:48 7,7 C 7,2 C 4,4 C 92 % 1016,8 hPa 0,0 l/m 0 min 0 min 0 W/m 9,7 km/h (2 Bft) 100,00 %
15.11.2023 22:50 7,7 C 6,7 C 3,9 C 92 % 1016,8 hPa 0,0 l/m 0 min 0 min 0 W/m 12,9 km/h (3 Bft) 100,00 %
15.11.2023 22:52 7,7 C 6,7 C 3,9 C 92 % 1016,8 hPa 0,0 l/m 0 min 0 min 0 W/m 12,9 km/h (3 Bft) 74,47 %
15.11.2023 22:54 7,7 C 6,7 C 3,9 C 92 % 1016,8 hPa 0,0 l/m 0 min 0 min 0 W/m 12,9 km/h (3 Bft) 69,23 %
15.11.2023 22:56 7,7 C 6,7 C 3,9 C 92 % 1016,7 hPa 0,0 l/m 0 min 0 min 0 W/m 12,9 km/h (3 Bft) 97,87 %
15.11.2023 22:58 7,7 C 7,2 C 4,4 C 92 % 1016,8 hPa 0,0 l/m 0 min 0 min 0 W/m 12,9 km/h (3 Bft) 100,00 %
15.11.2023 23:00 7,7 C 7,2 C 4,4 C 92 % 1016,7 hPa 0,0 l/m 0 min 0 min 0 W/m 12,9 km/h (3 Bft) 100,00 %
15.11.2023 23:02 7,7 C 7,2 C 4,4 C 92 % 1016,8 hPa 0,0 l/m 0 min 0 min 0 W/m 19,3 km/h (3 Bft) 100,00 %
15.11.2023 23:04 7,7 C 7,2 C 4,4 C 92 % 1016,8 hPa 0,0 l/m 0 min 0 min 0 W/m 16,1 km/h (3 Bft) 97,78 %
15.11.2023 23:06 7,7 C 7,2 C 4,4 C 92 % 1016,8 hPa 0,0 l/m 0 min 0 min 0 W/m 9,7 km/h (2 Bft) 97,87 %
15.11.2023 23:08 7,7 C 7,2 C 4,4 C 92 % 1016,7 hPa 0,0 l/m 0 min 0 min 0 W/m 19,3 km/h (3 Bft) 100,00 %
15.11.2023 23:10 7,7 C 7,2 C 4,4 C 92 % 1016,7 hPa 0,0 l/m 0 min 0 min 0 W/m 12,9 km/h (3 Bft) 100,00 %
15.11.2023 23:12 7,7 C 7,2 C 4,4 C 92 % 1016,7 hPa 0,0 l/m 0 min 0 min 0 W/m 12,9 km/h (3 Bft) 97,87 %
15.11.2023 23:14 7,7 C 7,2 C 4,4 C 92 % 1016,7 hPa 0,0 l/m 0 min 0 min 0 W/m 12,9 km/h (3 Bft) 97,83 %
15.11.2023 23:16 7,7 C 7,2 C 4,4 C 92 % 1016,7 hPa 0,0 l/m 0 min 0 min 0 W/m 16,1 km/h (3 Bft) 100,00 %
15.11.2023 23:18 7,7 C 7,2 C 4,4 C 92 % 1016,7 hPa 0,0 l/m 0 min 0 min 0 W/m 12,9 km/h (3 Bft) 100,00 %
15.11.2023 23:20 7,7 C 7,2 C 4,4 C 92 % 1016,7 hPa 0,0 l/m 0 min 0 min 0 W/m 12,9 km/h (3 Bft) 100,00 %
15.11.2023 23:22 7,7 C 7,2 C 4,4 C 92 % 1016,8 hPa 0,0 l/m 0 min 0 min 0 W/m 12,9 km/h (3 Bft) 95,74 %
15.11.2023 23:24 7,7 C 7,2 C 4,4 C 92 % 1016,8 hPa 0,0 l/m 0 min 0 min 0 W/m 16,1 km/h (3 Bft) 95,74 %
15.11.2023 23:26 7,8 C 7,2 C 4,4 C 92 % 1016,7 hPa 0,0 l/m 0 min 0 min 0 W/m 16,1 km/h (3 Bft) 97,87 %
15.11.2023 23:28 7,7 C 7,2 C 4,4 C 92 % 1016,8 hPa 0,0 l/m 0 min 0 min 0 W/m 16,1 km/h (3 Bft) 97,87 %
15.11.2023 23:30 7,7 C 7,2 C 4,4 C 92 % 1016,8 hPa 0,0 l/m 0 min 0 min 0 W/m 12,9 km/h (3 Bft) 95,65 %
15.11.2023 23:32 7,7 C 7,2 C 4,4 C 92 % 1016,7 hPa 0,0 l/m 0 min 0 min 0 W/m 16,1 km/h (3 Bft) 97,87 %
15.11.2023 23:34 7,8 C 7,2 C 4,4 C 92 % 1016,8 hPa 0,0 l/m 0 min 0 min 0 W/m 12,9 km/h (3 Bft) 95,74 %
15.11.2023 23:36 7,8 C 7,2 C 4,4 C 92 % 1016,7 hPa 0,0 l/m 0 min 0 min 0 W/m 16,1 km/h (3 Bft) 97,87 %
15.11.2023 23:38 7,8 C 7,2 C 4,4 C 92 % 1016,8 hPa 0,0 l/m 0 min 0 min 0 W/m 6,4 km/h (2 Bft) 97,87 %
15.11.2023 23:40 7,7 C 7,2 C 4,4 C 92 % 1016,7 hPa 0,0 l/m 0 min 0 min 0 W/m 12,9 km/h (3 Bft) 95,74 %
15.11.2023 23:42 7,7 C 7,2 C 4,4 C 91 % 1016,8 hPa 0,0 l/m 0 min 0 min 0 W/m 6,4 km/h (2 Bft) 95,74 %
15.11.2023 23:44 7,7 C 6,7 C 3,9 C 91 % 1016,8 hPa 0,0 l/m 0 min 0 min 0 W/m 3,2 km/h (1 Bft) 93,48 %
15.11.2023 23:46 7,7 C 6,7 C 3,9 C 91 % 1016,8 hPa 0,0 l/m 0 min 0 min 0 W/m 3,2 km/h (1 Bft) 95,74 %
15.11.2023 23:48 7,7 C 6,7 C 3,9 C 91 % 1016,9 hPa 0,0 l/m 0 min 0 min 0 W/m 12,9 km/h (3 Bft) 93,62 %
15.11.2023 23:50 7,6 C 6,7 C 3,9 C 91 % 1016,8 hPa 0,0 l/m 0 min 0 min 0 W/m 12,9 km/h (3 Bft) 92,86 %
15.11.2023 23:52 7,6 C 6,7 C 3,9 C 91 % 1016,9 hPa 0,0 l/m 0 min 0 min 0 W/m 19,3 km/h (3 Bft) 91,30 %
15.11.2023 23:54 7,6 C 6,7 C 3,9 C 91 % 1016,9 hPa 0,0 l/m 0 min 0 min 0 W/m 12,9 km/h (3 Bft) 92,16 %
15.11.2023 23:56 7,6 C 6,7 C 3,9 C 91 % 1016,9 hPa 0,0 l/m 0 min 0 min 0 W/m 12,9 km/h (3 Bft) 91,49 %
15.11.2023 23:58 7,6 C 6,7 C 3,9 C 91 % 1017,0 hPa 0,0 l/m 0 min 0 min 0 W/m 12,9 km/h (3 Bft) 93,62 %
_ Min-Zeit 23:50 22:50 17:52 14:34 00:00 - - - - 16:14 00:58
Minimum _ 7,6 C 6,7 C 3,9 C 82 % 1007,2 hPa - - - - 0,0 km/h (0 Bft) 51,22 %
_ Max-Zeit 14:36 13:08 13:12 00:00 18:34 00:05 14:10 00:10 13:22 05:34 00:05
Maximum _ 12,3 C 14,4 C 8,3 C 98 % 1017,1 hPa 0,6 l/m 5 min 5 min 381 W/m 38,6 km/h
O (5 Bft)
100,00 %
Durchschnitt _ 9,8 C 9,2 C 6,0 C 93 % 1014,0 hPa #4,4 l/m #1:07 h #1:58 h 84 W/m 13,9 km/h (3 Bft) 97,05 %
© 2023 W. Hausmann